Observation data for Clyde on 07/20/2019      Previous  Date       Current Mesonet Observations  Soil Data  Daily Summary Page  Observations in Plain Language
KCL2 200500Z 16011KT 27/18 A2996 RMK A01 T02690183  RH  059%=      5-min Rain = 0
KCL2 200501Z 16009KT 27/18 A2997 RMK A01 T02690183  RH  059%=      5-min Rain = 0
KCL2 200502Z 16010KT 27/18 A2996 RMK A01 T02690182  RH  059%=      5-min Rain = 0
KCL2 200503Z 16010KT 27/18 A2996 RMK A01 T02690183  RH  059%=      5-min Rain = 0
KCL2 200504Z 16011KT 27/18 A2996 RMK A01 T02690183  RH  059%=      5-min Rain = 0
KCL2 200505Z 16009KT 27/18 A2997 RMK A01 T02700183  RH  059%=      5-min Rain = 0
KCL2 200506Z 16010KT 27/18 A2996 RMK A01 T02700183  RH  059%=      5-min Rain = 0
KCL2 200507Z 16011KT 27/18 A2996 RMK A01 T02700183  RH  059%=      5-min Rain = 0
KCL2 200508Z 16010KT 27/18 A2996 RMK A01 T02700183  RH  059%=      5-min Rain = 0
KCL2 200509Z 16009KT 27/18 A2996 RMK A01 T02700183  RH  059%=      5-min Rain = 0
KCL2 200510Z 16009KT 27/18 A2996 RMK A01 T02700183  RH  059%=      5-min Rain = 0
KCL2 200511Z 16010KT 27/18 A2996 RMK A01 T02690183  RH  059%=      5-min Rain = 0
KCL2 200512Z 16009KT 27/18 A2996 RMK A01 T02690184  RH  059%=      5-min Rain = 0
KCL2 200513Z 16009KT 27/18 A2996 RMK A01 T02690184  RH  059%=      5-min Rain = 0
KCL2 200514Z 16010KT 27/18 A2996 RMK A01 T02690184  RH  060%=      5-min Rain = 0
KCL2 200515Z 16009KT 27/18 A2996 RMK A01 T02690184  RH  060%=      5-min Rain = 0
KCL2 200516Z 15010KT 27/18 A2996 RMK A01 T02690184  RH  060%=      5-min Rain = 0
KCL2 200517Z 16009KT 27/18 A2996 RMK A01 T02690184  RH  059%=      5-min Rain = 0
KCL2 200518Z 16009KT 27/18 A2996 RMK A01 T02690184  RH  059%=      5-min Rain = 0
KCL2 200519Z 16010KT 27/18 A2996 RMK A01 T02690184  RH  060%=      5-min Rain = 0
KCL2 200520Z 16010KT 27/18 A2996 RMK A01 T02690184  RH  060%=      5-min Rain = 0
KCL2 200521Z 16010KT 27/18 A2996 RMK A01 T02690184  RH  060%=      5-min Rain = 0
KCL2 200522Z 16009KT 27/18 A2996 RMK A01 T02690184  RH  060%=      5-min Rain = 0
KCL2 200523Z 16010KT 27/18 A2996 RMK A01 T02690184  RH  060%=      5-min Rain = 0
KCL2 200524Z 16008KT 27/18 A2996 RMK A01 T02690184  RH  060%=      5-min Rain = 0
KCL2 200525Z 16008KT 27/18 A2996 RMK A01 T02680184  RH  060%=      5-min Rain = 0
KCL2 200526Z 16007KT 27/19 A2996 RMK A01 T02680185  RH  060%=      5-min Rain = 0
KCL2 200527Z 16008KT 27/18 A2996 RMK A01 T02670184  RH  060%=      5-min Rain = 0
KCL2 200528Z 16008KT 27/18 A2996 RMK A01 T02670184  RH  060%=      5-min Rain = 0
KCL2 200529Z 16008KT 27/19 A2996 RMK A01 T02670185  RH  061%=      5-min Rain = 0
KCL2 200530Z 16008KT 27/18 A2996 RMK A01 T02670184  RH  061%=      5-min Rain = 0
KCL2 200531Z 16009KT 27/18 A2996 RMK A01 T02670184  RH  061%=      5-min Rain = 0
KCL2 200532Z 16010KT 27/18 A2996 RMK A01 T02670184  RH  061%=      5-min Rain = 0
KCL2 200533Z 16010KT 27/18 A2996 RMK A01 T02670184  RH  060%=      5-min Rain = 0
KCL2 200534Z 16010KT 27/18 A2996 RMK A01 T02680184  RH  060%=      5-min Rain = 0
KCL2 200535Z 16009KT 27/19 A2996 RMK A01 T02680185  RH  060%=      5-min Rain = 0
KCL2 200536Z 17010KT 27/19 A2996 RMK A01 T02680185  RH  060%=      5-min Rain = 0
KCL2 200537Z 16009KT 27/19 A2996 RMK A01 T02680185  RH  060%=      5-min Rain = 0
KCL2 200538Z 16009KT 27/19 A2996 RMK A01 T02680185  RH  060%=      5-min Rain = 0
KCL2 200539Z 16010KT 27/19 A2996 RMK A01 T02680185  RH  060%=      5-min Rain = 0
KCL2 200540Z 16009KT 27/19 A2996 RMK A01 T02680185  RH  060%=      5-min Rain = 0
KCL2 200541Z 17009KT 27/19 A2996 RMK A01 T02680185  RH  060%=      5-min Rain = 0
KCL2 200542Z 16008KT 27/19 A2996 RMK A01 T02680185  RH  060%=      5-min Rain = 0
KCL2 200543Z 16010KT 27/19 A2996 RMK A01 T02680185  RH  060%=      5-min Rain = 0
KCL2 200544Z 16009KT 27/19 A2997 RMK A01 T02680185  RH  060%=      5-min Rain = 0
KCL2 200545Z 16008G13KT 27/19 A2997 RMK A01 T02680185  RH  060%=      5-min Rain = 0
KCL2 200546Z 16010KT 27/19 A2997 RMK A01 T02680185  RH  061%=      5-min Rain = 0
KCL2 200547Z 16009KT 27/19 A2997 RMK A01 T02680185  RH  060%=      5-min Rain = 0
KCL2 200548Z 16009KT 27/19 A2997 RMK A01 T02680185  RH  060%=      5-min Rain = 0
KCL2 200549Z 16010KT 27/19 A2997 RMK A01 T02680185  RH  060%=      5-min Rain = 0
KCL2 200550Z 16009KT 27/19 A2997 RMK A01 T02680185  RH  060%=      5-min Rain = 0
KCL2 200551Z 16010KT 27/19 A2997 RMK A01 T02680185  RH  060%=      5-min Rain = 0
KCL2 200552Z 16010KT 27/19 A2996 RMK A01 T02680185  RH  060%=      5-min Rain = 0
KCL2 200553Z 16009KT 27/19 A2996 RMK A01 T02680186  RH  060%=      5-min Rain = 0
KCL2 200554Z 16010KT 27/19 A2996 RMK A01 T02680185  RH  060%=      5-min Rain = 0
KCL2 200555Z 17009KT 27/19 A2996 RMK A01 T02690185  RH  060%=      5-min Rain = 0
KCL2 200556Z 16010KT 27/19 A2996 RMK A01 T02690186  RH  060%=      5-min Rain = 0
KCL2 200557Z 17009KT 27/19 A2996 RMK A01 T02680185  RH  060%=      5-min Rain = 0
KCL2 200558Z 16009KT 27/19 A2996 RMK A01 T02680186  RH  061%=      5-min Rain = 0
KCL2 200559Z 16009KT 27/19 A2996 RMK A01 T02680186  RH  061%=      5-min Rain = 0
KCL2 200600Z 17008KT 27/19 A2996 RMK A01 T02670185  RH  061%=      5-min Rain = 0
KCL2 200601Z 16009KT 27/19 A2996 RMK A01 T02670186  RH  061%=      5-min Rain = 0
KCL2 200602Z 16010KT 27/19 A2996 RMK A01 T02670186  RH  061%=      5-min Rain = 0
KCL2 200603Z 16010KT 27/19 A2996 RMK A01 T02670185  RH  061%=      5-min Rain = 0
KCL2 200604Z 16008KT 27/19 A2996 RMK A01 T02670186  RH  061%=      5-min Rain = 0
KCL2 200605Z 16009KT 27/19 A2996 RMK A01 T02660186  RH  061%=      5-min Rain = 0
KCL2 200606Z 16010KT 27/19 A2996 RMK A01 T02650186  RH  062%=      5-min Rain = 0
KCL2 200607Z 16011KT 27/19 A2996 RMK A01 T02650186  RH  062%=      5-min Rain = 0
KCL2 200608Z 16011KT 27/19 A2996 RMK A01 T02660185  RH  061%=      5-min Rain = 0
KCL2 200609Z 17010KT 27/19 A2996 RMK A01 T02660185  RH  061%=      5-min Rain = 0
KCL2 200610Z 16011KT 27/19 A2996 RMK A01 T02660186  RH  061%=      5-min Rain = 0
KCL2 200611Z 17010KT 27/19 A2996 RMK A01 T02660186  RH  061%=      5-min Rain = 0
KCL2 200612Z 16009KT 27/19 A2996 RMK A01 T02660186  RH  061%=      5-min Rain = 0
KCL2 200613Z 17009KT 27/19 A2996 RMK A01 T02650186  RH  062%=      5-min Rain = 0
KCL2 200614Z 16012KT 27/19 A2996 RMK A01 T02650186  RH  062%=      5-min Rain = 0
KCL2 200615Z 16009KT 27/19 A2996 RMK A01 T02650186  RH  062%=      5-min Rain = 0
KCL2 200616Z 16010KT 26/19 A2996 RMK A01 T02640186  RH  062%=      5-min Rain = 0
KCL2 200617Z 16010KT 26/19 A2996 RMK A01 T02640186  RH  062%=      5-min Rain = 0
KCL2 200618Z 17011G16KT 26/19 A2996 RMK A01 T02640186  RH  062%=      5-min Rain = 0
KCL2 200619Z 16011KT 26/19 A2996 RMK A01 T02640187  RH  062%=      5-min Rain = 0
KCL2 200620Z 17011KT 26/19 A2996 RMK A01 T02640186  RH  062%=      5-min Rain = 0
KCL2 200621Z 16010G15KT 26/19 A2996 RMK A01 T02640186  RH  062%=      5-min Rain = 0
KCL2 200622Z 17011KT 26/19 A2996 RMK A01 T02640186  RH  062%=      5-min Rain = 0
KCL2 200623Z 16012KT 26/19 A2996 RMK A01 T02640186  RH  062%=      5-min Rain = 0
KCL2 200624Z 17013KT 26/19 A2996 RMK A01 T02640187  RH  062%=      5-min Rain = 0
KCL2 200625Z 17013KT 27/19 A2996 RMK A01 T02650187  RH  062%=      5-min Rain = 0
KCL2 200626Z 17013KT 26/19 A2996 RMK A01 T02640187  RH  062%=      5-min Rain = 0
KCL2 200627Z 16011KT 27/19 A2996 RMK A01 T02650188  RH  063%=      5-min Rain = 0
KCL2 200628Z 17013KT 27/19 A2996 RMK A01 T02650188  RH  063%=      5-min Rain = 0
KCL2 200629Z 16013KT 27/19 A2996 RMK A01 T02650188  RH  063%=      5-min Rain = 0
KCL2 200630Z 17012KT 27/19 A2996 RMK A01 T02660189  RH  063%=      5-min Rain = 0
KCL2 200631Z 17011KT 27/19 A2996 RMK A01 T02660189  RH  063%=      5-min Rain = 0
KCL2 200632Z 17012KT 27/19 A2996 RMK A01 T02660189  RH  063%=      5-min Rain = 0
KCL2 200633Z 17012KT 27/19 A2996 RMK A01 T02650189  RH  063%=      5-min Rain = 0
KCL2 200634Z 17011KT 27/19 A2996 RMK A01 T02650190  RH  063%=      5-min Rain = 0
KCL2 200635Z 17012KT 27/19 A2996 RMK A01 T02650190  RH  063%=      5-min Rain = 0
KCL2 200636Z 17011KT 27/19 A2996 RMK A01 T02650190  RH  063%=      5-min Rain = 0
KCL2 200637Z 17011KT 27/19 A2996 RMK A01 T02650191  RH  064%=      5-min Rain = 0
KCL2 200638Z 17012G17KT 27/19 A2996 RMK A01 T02650191  RH  064%=      5-min Rain = 0
KCL2 200639Z 17012KT 27/19 A2996 RMK A01 T02650191  RH  064%=      5-min Rain = 0
KCL2 200640Z 17011KT 27/19 A2996 RMK A01 T02650191  RH  064%=      5-min Rain = 0
KCL2 200641Z 17012G17KT 27/19 A2996 RMK A01 T02650191  RH  064%=      5-min Rain = 0
KCL2 200642Z 17011KT 27/19 A2996 RMK A01 T02650192  RH  064%=      5-min Rain = 0
KCL2 200643Z 17012KT 27/19 A2996 RMK A01 T02660192  RH  064%=      5-min Rain = 0
KCL2 200644Z 17012KT 27/19 A2996 RMK A01 T02650192  RH  064%=      5-min Rain = 0
KCL2 200645Z 17011KT 27/19 A2996 RMK A01 T02660192  RH  064%=      5-min Rain = 0
KCL2 200646Z 17011KT 27/19 A2996 RMK A01 T02660193  RH  064%=      5-min Rain = 0
KCL2 200647Z 17010KT 27/19 A2996 RMK A01 T02660193  RH  064%=      5-min Rain = 0
KCL2 200648Z 17012KT 27/19 A2996 RMK A01 T02660194  RH  065%=      5-min Rain = 0
KCL2 200649Z 17013KT 27/19 A2996 RMK A01 T02660193  RH  065%=      5-min Rain = 0
KCL2 200650Z 17011KT 27/19 A2996 RMK A01 T02660194  RH  065%=      5-min Rain = 0
KCL2 200651Z 17012KT 27/19 A2996 RMK A01 T02660194  RH  065%=      5-min Rain = 0
KCL2 200652Z 17013KT 27/19 A2996 RMK A01 T02660194  RH  065%=      5-min Rain = 0
KCL2 200653Z 17012KT 27/19 A2996 RMK A01 T02660194  RH  065%=      5-min Rain = 0
KCL2 200654Z 17010KT 27/19 A2996 RMK A01 T02670194  RH  065%=      5-min Rain = 0
KCL2 200655Z 17014KT 27/20 A2996 RMK A01 T02670195  RH  065%=      5-min Rain = 0
KCL2 200656Z 17013KT 27/20 A2996 RMK A01 T02670195  RH  065%=      5-min Rain = 0
KCL2 200657Z 17015KT 27/20 A2996 RMK A01 T02670195  RH  065%=      5-min Rain = 0
KCL2 200658Z 17014KT 27/20 A2996 RMK A01 T02670196  RH  065%=      5-min Rain = 0
KCL2 200659Z 17012KT 27/20 A2996 RMK A01 T02670196  RH  065%=      5-min Rain = 0
KCL2 200700Z 17011KT 27/20 A2996 RMK A01 T02670196  RH  065%=      5-min Rain = 0
KCL2 200701Z 17011KT 27/20 A2996 RMK A01 T02670196  RH  065%=      5-min Rain = 0
KCL2 200702Z 17014KT 27/20 A2996 RMK A01 T02660196  RH  065%=      5-min Rain = 0
KCL2 200703Z 17011KT 27/20 A2996 RMK A01 T02670197  RH  065%=      5-min Rain = 0
KCL2 200704Z 17011KT 27/20 A2996 RMK A01 T02660197  RH  065%=      5-min Rain = 0
KCL2 200705Z 17012G17KT 27/20 A2996 RMK A01 T02660197  RH  066%=      5-min Rain = 0
KCL2 200706Z 18015KT 27/20 A2995 RMK A01 T02660197  RH  066%=      5-min Rain = 0
KCL2 200707Z 18012KT 27/20 A2995 RMK A01 T02660197  RH  066%=      5-min Rain = 0
KCL2 200708Z 17012G17KT 27/20 A2995 RMK A01 T02660197  RH  066%=      5-min Rain = 0
KCL2 200709Z 17012KT 27/20 A2995 RMK A01 T02660197  RH  066%=      5-min Rain = 0
KCL2 200710Z 17012KT 27/20 A2995 RMK A01 T02660197  RH  066%=      5-min Rain = 0
KCL2 200711Z 17014KT 27/20 A2995 RMK A01 T02660197  RH  066%=      5-min Rain = 0
KCL2 200712Z 17013KT 27/20 A2995 RMK A01 T02660198  RH  066%=      5-min Rain = 0
KCL2 200713Z 17013G18KT 27/20 A2995 RMK A01 T02660197  RH  066%=      5-min Rain = 0
KCL2 200714Z 18011KT 27/20 A2995 RMK A01 T02670198  RH  066%=      5-min Rain = 0
KCL2 200715Z 17013G18KT 27/20 A2995 RMK A01 T02670198  RH  066%=      5-min Rain = 0
KCL2 200716Z 18010KT 27/20 A2995 RMK A01 T02660198  RH  066%=      5-min Rain = 0
KCL2 200717Z 17011KT 27/20 A2995 RMK A01 T02660198  RH  066%=      5-min Rain = 0
KCL2 200718Z 17013KT 27/20 A2995 RMK A01 T02650198  RH  067%=      5-min Rain = 0
KCL2 200719Z 18013KT 27/20 A2995 RMK A01 T02650199  RH  067%=      5-min Rain = 0
KCL2 200720Z 17011KT 27/20 A2995 RMK A01 T02650199  RH  067%=      5-min Rain = 0
KCL2 200721Z 17012KT 27/20 A2995 RMK A01 T02650199  RH  067%=      5-min Rain = 0
KCL2 200722Z 17011KT 26/20 A2995 RMK A01 T02640199  RH  067%=      5-min Rain = 0
KCL2 200723Z 18013G18KT 26/20 A2995 RMK A01 T02640199  RH  067%=      5-min Rain = 0
KCL2 200724Z 17014KT 26/20 A2995 RMK A01 T02640199  RH  067%=      5-min Rain = 0
KCL2 200725Z 17014KT 26/20 A2995 RMK A01 T02640199  RH  067%=      5-min Rain = 0
KCL2 200726Z 18013KT 26/20 A2995 RMK A01 T02640199  RH  067%=      5-min Rain = 0
KCL2 200727Z 17012KT 27/20 A2995 RMK A01 T02650200  RH  067%=      5-min Rain = 0
KCL2 200728Z 18012G17KT 26/20 A2995 RMK A01 T02640200  RH  068%=      5-min Rain = 0
KCL2 200729Z 17014G19KT 26/20 A2995 RMK A01 T02640200  RH  068%=      5-min Rain = 0
KCL2 200730Z 17014KT 26/20 A2995 RMK A01 T02640200  RH  068%=      5-min Rain = 0
KCL2 200731Z 17014KT 26/20 A2995 RMK A01 T02640200  RH  068%=      5-min Rain = 0
KCL2 200732Z 17013KT 26/20 A2995 RMK A01 T02640200  RH  068%=      5-min Rain = 0
KCL2 200733Z 17011KT 26/20 A2995 RMK A01 T02640200  RH  068%=      5-min Rain = 0
KCL2 200734Z 17013KT 26/20 A2995 RMK A01 T02640201  RH  068%=      5-min Rain = 0
KCL2 200735Z 17012KT 26/20 A2995 RMK A01 T02630200  RH  068%=      5-min Rain = 0
KCL2 200736Z 17013G18KT 26/20 A2995 RMK A01 T02630200  RH  069%=      5-min Rain = 0
KCL2 200737Z 17010KT 26/20 A2995 RMK A01 T02630201  RH  069%=      5-min Rain = 0
KCL2 200738Z 18012KT 26/20 A2995 RMK A01 T02620200  RH  069%=      5-min Rain = 0
KCL2 200739Z 18012KT 26/20 A2995 RMK A01 T02620201  RH  069%=      5-min Rain = 0
KCL2 200740Z 17011KT 26/20 A2995 RMK A01 T02620200  RH  069%=      5-min Rain = 0
KCL2 200741Z 18010G18KT 26/20 A2995 RMK A01 T02620201  RH  069%=      5-min Rain = 0
KCL2 200742Z 18013G18KT 26/20 A2995 RMK A01 T02620201  RH  069%=      5-min Rain = 0
KCL2 200743Z 17011KT 26/20 A2995 RMK A01 T02610200  RH  069%=      5-min Rain = 0
KCL2 200744Z 18012KT 26/20 A2995 RMK A01 T02610201  RH  069%=      5-min Rain = 0
KCL2 200745Z 18013KT 26/20 A2995 RMK A01 T02610201  RH  069%=      5-min Rain = 0
KCL2 200746Z 17011KT 26/20 A2995 RMK A01 T02610201  RH  069%=      5-min Rain = 0
KCL2 200747Z 18013KT 26/20 A2995 RMK A01 T02610201  RH  069%=      5-min Rain = 0
KCL2 200748Z 18010G15KT 26/20 A2995 RMK A01 T02610201  RH  069%=      5-min Rain = 0
KCL2 200749Z 18010KT 26/20 A2995 RMK A01 T02600201  RH  070%=      5-min Rain = 0
KCL2 200750Z 18010KT 26/20 A2995 RMK A01 T02600201  RH  070%=      5-min Rain = 0
KCL2 200751Z 18011KT 26/20 A2995 RMK A01 T02600201  RH  070%=      5-min Rain = 0
KCL2 200752Z 18011KT 26/20 A2995 RMK A01 T02590201  RH  070%=      5-min Rain = 0
KCL2 200753Z 18009KT 26/20 A2995 RMK A01 T02590201  RH  070%=      5-min Rain = 0
KCL2 200754Z 18012KT 26/20 A2995 RMK A01 T02590201  RH  070%=      5-min Rain = 0
KCL2 200755Z 18011KT 26/20 A2995 RMK A01 T02590201  RH  071%=      5-min Rain = 0
KCL2 200756Z 18010KT 26/20 A2995 RMK A01 T02590201  RH  071%=      5-min Rain = 0
KCL2 200757Z 18011KT 26/20 A2995 RMK A01 T02580201  RH  071%=      5-min Rain = 0
KCL2 200758Z 18009KT 26/20 A2995 RMK A01 T02580201  RH  071%=      5-min Rain = 0
KCL2 200759Z 18012KT 26/20 A2995 RMK A01 T02580201  RH  071%=      5-min Rain = 0
KCL2 200800Z 18011KT 26/20 A2995 RMK A01 T02580201  RH  071%=      5-min Rain = 0
KCL2 200801Z 18010KT 26/20 A2995 RMK A01 T02580201  RH  071%=      5-min Rain = 0
KCL2 200802Z 18012G19KT 26/20 A2995 RMK A01 T02580202  RH  071%=      5-min Rain = 0
KCL2 200803Z 18014G19KT 26/20 A2995 RMK A01 T02580201  RH  071%=      5-min Rain = 0
KCL2 200804Z 18012KT 26/20 A2995 RMK A01 T02590201  RH  071%=      5-min Rain = 0
KCL2 200805Z 19011KT 26/20 A2995 RMK A01 T02590202  RH  071%=      5-min Rain = 0
KCL2 200806Z 18012KT 26/20 A2995 RMK A01 T02590202  RH  071%=      5-min Rain = 0
KCL2 200807Z 18012KT 26/20 A2995 RMK A01 T02590202  RH  071%=      5-min Rain = 0
KCL2 200808Z 17012KT 26/20 A2995 RMK A01 T02590202  RH  071%=      5-min Rain = 0
KCL2 200809Z 17011KT 26/20 A2995 RMK A01 T02590202  RH  071%=      5-min Rain = 0
KCL2 200810Z 18011KT 26/20 A2995 RMK A01 T02590202  RH  071%=      5-min Rain = 0
KCL2 200811Z 17014KT 26/20 A2995 RMK A01 T02580202  RH  071%=      5-min Rain = 0
KCL2 200812Z 17011KT 26/20 A2995 RMK A01 T02580202  RH  071%=      5-min Rain = 0
KCL2 200813Z 18011KT 26/20 A2995 RMK A01 T02580202  RH  071%=      5-min Rain = 0
KCL2 200814Z 18010KT 26/20 A2995 RMK A01 T02580202  RH  071%=      5-min Rain = 0
KCL2 200815Z 18008KT 26/20 A2995 RMK A01 T02580202  RH  071%=      5-min Rain = 0
KCL2 200816Z 18011KT 26/20 A2995 RMK A01 T02570202  RH  072%=      5-min Rain = 0
KCL2 200817Z 18010KT 26/20 A2995 RMK A01 T02570202  RH  072%=      5-min Rain = 0
KCL2 200818Z 18011KT 26/20 A2995 RMK A01 T02560202  RH  072%=      5-min Rain = 0
KCL2 200819Z 18011KT 26/20 A2995 RMK A01 T02560202  RH  072%=      5-min Rain = 0
KCL2 200820Z 18009KT 26/20 A2995 RMK A01 T02560202  RH  072%=      5-min Rain = 0
KCL2 200821Z 18009KT 26/20 A2995 RMK A01 T02560202  RH  072%=      5-min Rain = 0
KCL2 200822Z 18010KT 26/20 A2995 RMK A01 T02560202  RH  072%=      5-min Rain = 0
KCL2 200823Z 18011KT 26/20 A2995 RMK A01 T02550202  RH  072%=      5-min Rain = 0
KCL2 200824Z 18010KT 26/20 A2995 RMK A01 T02550202  RH  072%=      5-min Rain = 0
KCL2 200825Z 18010G15KT 26/20 A2994 RMK A01 T02560202  RH  072%=      5-min Rain = 0
KCL2 200826Z 18011KT 26/20 A2994 RMK A01 T02560202  RH  072%=      5-min Rain = 0
KCL2 200827Z 18014KT 26/20 A2994 RMK A01 T02560203  RH  072%=      5-min Rain = 0
KCL2 200828Z 18012KT 26/20 A2994 RMK A01 T02570202  RH  072%=      5-min Rain = 0
KCL2 200829Z 18011KT 26/20 A2994 RMK A01 T02570203  RH  072%=      5-min Rain = 0
KCL2 200830Z 17010KT 26/20 A2994 RMK A01 T02570202  RH  072%=      5-min Rain = 0
KCL2 200831Z 17012KT 26/20 A2994 RMK A01 T02560203  RH  072%=      5-min Rain = 0
KCL2 200832Z 18011G16KT 26/20 A2994 RMK A01 T02560203  RH  072%=      5-min Rain = 0
KCL2 200833Z 18015KT 26/20 A2994 RMK A01 T02550202  RH  073%=      5-min Rain = 0
KCL2 200834Z 18014KT 26/20 A2994 RMK A01 T02560203  RH  072%=      5-min Rain = 0
KCL2 200835Z 18011KT 26/20 A2994 RMK A01 T02560203  RH  072%=      5-min Rain = 0
KCL2 200836Z 17013KT 26/20 A2994 RMK A01 T02570203  RH  072%=      5-min Rain = 0
KCL2 200837Z 17011G16KT 26/20 A2994 RMK A01 T02570203  RH  072%=      5-min Rain = 0
KCL2 200838Z 17011KT 26/20 A2994 RMK A01 T02570203  RH  072%=      5-min Rain = 0
KCL2 200839Z 18010G15KT 26/20 A2994 RMK A01 T02560203  RH  072%=      5-min Rain = 0
KCL2 200840Z 17012KT 26/20 A2994 RMK A01 T02550203  RH  073%=      5-min Rain = 0
KCL2 200841Z 17014G20KT 26/20 A2994 RMK A01 T02560203  RH  073%=      5-min Rain = 0
KCL2 200842Z 18012KT 26/20 A2994 RMK A01 T02560203  RH  073%=      5-min Rain = 0
KCL2 200843Z 18013KT 26/20 A2994 RMK A01 T02560203  RH  073%=      5-min Rain = 0
KCL2 200844Z 18011KT 26/20 A2994 RMK A01 T02560203  RH  073%=      5-min Rain = 0
KCL2 200845Z 18012KT 26/20 A2994 RMK A01 T02560203  RH  073%=      5-min Rain = 0
KCL2 200846Z 17013KT 26/20 A2994 RMK A01 T02550204  RH  073%=      5-min Rain = 0
KCL2 200847Z 18011KT 26/20 A2994 RMK A01 T02550203  RH  073%=      5-min Rain = 0
KCL2 200848Z 18012KT 26/20 A2994 RMK A01 T02550203  RH  073%=      5-min Rain = 0
KCL2 200849Z 18012KT 26/20 A2994 RMK A01 T02550203  RH  073%=      5-min Rain = 0
KCL2 200850Z 18012KT 26/20 A2994 RMK A01 T02550204  RH  073%=      5-min Rain = 0
KCL2 200851Z 18012G18KT 26/20 A2994 RMK A01 T02550204  RH  073%=      5-min Rain = 0
KCL2 200852Z 18013KT 26/20 A2994 RMK A01 T02550203  RH  073%=      5-min Rain = 0
KCL2 200853Z 18011G16KT 26/20 A2994 RMK A01 T02550203  RH  073%=      5-min Rain = 0
KCL2 200854Z 17012KT 26/20 A2994 RMK A01 T02550203  RH  073%=      5-min Rain = 0
KCL2 200855Z 18012KT 26/20 A2994 RMK A01 T02550204  RH  073%=      5-min Rain = 0
KCL2 200856Z 18010KT 25/20 A2994 RMK A01 T02540204  RH  073%=      5-min Rain = 0
KCL2 200857Z 17012G19KT 25/20 A2994 RMK A01 T02540203  RH  074%=      5-min Rain = 0
KCL2 200858Z 18012KT 25/20 A2994 RMK A01 T02540203  RH  074%=      5-min Rain = 0
KCL2 200859Z 18010KT 25/20 A2994 RMK A01 T02540203  RH  073%=      5-min Rain = 0
KCL2 200900Z 18011KT 25/20 A2994 RMK A01 T02540203  RH  073%=      5-min Rain = 0
KCL2 200901Z 18009KT 25/20 A2994 RMK A01 T02540203  RH  074%=      5-min Rain = 0
KCL2 200902Z 18011G16KT 25/20 A2994 RMK A01 T02530203  RH  074%=      5-min Rain = 0
KCL2 200903Z 18013G18KT 25/20 A2994 RMK A01 T02530203  RH  074%=      5-min Rain = 0
KCL2 200904Z 18013KT 25/20 A2994 RMK A01 T02530203  RH  074%=      5-min Rain = 0
KCL2 200905Z 17012KT 25/20 A2994 RMK A01 T02530203  RH  073%=      5-min Rain = 0
KCL2 200906Z 18013G19KT 25/20 A2994 RMK A01 T02530203  RH  073%=      5-min Rain = 0
KCL2 200907Z 18011KT 25/20 A2994 RMK A01 T02540203  RH  074%=      5-min Rain = 0
KCL2 200908Z 17010G15KT 25/20 A2994 RMK A01 T02530203  RH  074%=      5-min Rain = 0
KCL2 200909Z 18010KT 25/20 A2994 RMK A01 T02520203  RH  074%=      5-min Rain = 0
KCL2 200910Z 18013KT 25/20 A2994 RMK A01 T02520203  RH  074%=      5-min Rain = 0
KCL2 200911Z 18010KT 25/20 A2994 RMK A01 T02520203  RH  074%=      5-min Rain = 0
KCL2 200912Z 18011KT 25/20 A2994 RMK A01 T02520203  RH  074%=      5-min Rain = 0
KCL2 200913Z 18011KT 25/20 A2994 RMK A01 T02520203  RH  074%=      5-min Rain = 0
KCL2 200914Z 18015KT 25/20 A2994 RMK A01 T02520203  RH  074%=      5-min Rain = 0
KCL2 200915Z 18013KT 25/20 A2994 RMK A01 T02520203  RH  074%=      5-min Rain = 0
KCL2 200916Z 18012KT 25/20 A2994 RMK A01 T02520203  RH  074%=      5-min Rain = 0
KCL2 200917Z 18014KT 25/20 A2994 RMK A01 T02530203  RH  074%=      5-min Rain = 0
KCL2 200918Z 18013G18KT 25/20 A2994 RMK A01 T02520203  RH  074%=      5-min Rain = 0
KCL2 200919Z 17012KT 25/20 A2994 RMK A01 T02520203  RH  074%=      5-min Rain = 0
KCL2 200920Z 17013KT 25/20 A2994 RMK A01 T02520203  RH  074%=      5-min Rain = 0
KCL2 200921Z 19011KT 25/20 A2994 RMK A01 T02520204  RH  074%=      5-min Rain = 0
KCL2 200922Z 18011KT 25/20 A2994 RMK A01 T02520203  RH  075%=      5-min Rain = 0
KCL2 200923Z 17009KT 25/20 A2994 RMK A01 T02510204  RH  075%=      5-min Rain = 0
KCL2 200924Z 18010KT 25/20 A2994 RMK A01 T02510204  RH  075%=      5-min Rain = 0
KCL2 200925Z 18011KT 25/20 A2994 RMK A01 T02500203  RH  075%=      5-min Rain = 0
KCL2 200926Z 18011KT 25/20 A2994 RMK A01 T02500204  RH  075%=      5-min Rain = 0
KCL2 200927Z 17010G15KT 25/20 A2994 RMK A01 T02500203  RH  075%=      5-min Rain = 0
KCL2 200928Z 18014KT 25/20 A2994 RMK A01 T02500203  RH  075%=      5-min Rain = 0
KCL2 200929Z 17011KT 25/20 A2994 RMK A01 T02500204  RH  075%=      5-min Rain = 0
KCL2 200930Z 18010KT 25/20 A2994 RMK A01 T02500204  RH  075%=      5-min Rain = 0
KCL2 200931Z 17010KT 25/20 A2994 RMK A01 T02500204  RH  076%=      5-min Rain = 0
KCL2 200932Z 18011KT 25/20 A2994 RMK A01 T02490204  RH  076%=      5-min Rain = 0
KCL2 200933Z 18010KT 25/20 A2994 RMK A01 T02490204  RH  076%=      5-min Rain = 0
KCL2 200934Z 17010KT 25/20 A2994 RMK A01 T02490204  RH  076%=      5-min Rain = 0
KCL2 200935Z 19011KT 25/20 A2994 RMK A01 T02480204  RH  076%=      5-min Rain = 0
KCL2 200936Z 17013G18KT 25/20 A2994 RMK A01 T02490204  RH  076%=      5-min Rain = 0
KCL2 200937Z 17010KT 25/20 A2994 RMK A01 T02490204  RH  076%=      5-min Rain = 0
KCL2 200938Z 18011KT 25/20 A2994 RMK A01 T02490204  RH  076%=      5-min Rain = 0
KCL2 200939Z 18010KT 25/20 A2994 RMK A01 T02480204  RH  076%=      5-min Rain = 0
KCL2 200940Z 18012KT 25/20 A2994 RMK A01 T02480204  RH  076%=      5-min Rain = 0
KCL2 200941Z 19011KT 25/20 A2994 RMK A01 T02480204  RH  076%=      5-min Rain = 0
KCL2 200942Z 18009KT 25/20 A2994 RMK A01 T02480204  RH  076%=      5-min Rain = 0
KCL2 200943Z 18011KT 25/20 A2994 RMK A01 T02470204  RH  077%=      5-min Rain = 0
KCL2 200944Z 17011KT 25/20 A2994 RMK A01 T02470204  RH  077%=      5-min Rain = 0
KCL2 200945Z 18012KT 25/20 A2994 RMK A01 T02470204  RH  077%=      5-min Rain = 0
KCL2 200946Z 17011KT 25/20 A2994 RMK A01 T02470203  RH  077%=      5-min Rain = 0
KCL2 200947Z 18010KT 25/20 A2994 RMK A01 T02470203  RH  077%=      5-min Rain = 0
KCL2 200948Z 17010KT 25/20 A2994 RMK A01 T02470204  RH  077%=      5-min Rain = 0
KCL2 200949Z 17011KT 25/20 A2994 RMK A01 T02460203  RH  077%=      5-min Rain = 0
KCL2 200950Z 18009KT 25/20 A2994 RMK A01 T02460204  RH  077%=      5-min Rain = 0
KCL2 200951Z 18011G16KT 25/20 A2994 RMK A01 T02460203  RH  077%=      5-min Rain = 0
KCL2 200952Z 18011KT 25/20 A2994 RMK A01 T02460203  RH  077%=      5-min Rain = 0
KCL2 200953Z 17010KT 25/20 A2994 RMK A01 T02460204  RH  077%=      5-min Rain = 0
KCL2 200954Z 18010KT 25/20 A2994 RMK A01 T02450203  RH  077%=      5-min Rain = 0
KCL2 200955Z 17011KT 25/20 A2994 RMK A01 T02450204  RH  078%=      5-min Rain = 0
KCL2 200956Z 18010KT 25/20 A2994 RMK A01 T02450204  RH  078%=      5-min Rain = 0
KCL2 200957Z 18011G16KT 25/20 A2994 RMK A01 T02450203  RH  078%=      5-min Rain = 0
KCL2 200958Z 18012KT 25/20 A2994 RMK A01 T02450204  RH  078%=      5-min Rain = 0
KCL2 200959Z 18010KT 25/20 A2994 RMK A01 T02450204  RH  078%=      5-min Rain = 0
KCL2 201000Z 17011KT 25/20 A2994 RMK A01 T02450204  RH  078%=      5-min Rain = 0
KCL2 201001Z 18011KT 24/20 A2994 RMK A01 T02440204  RH  078%=      5-min Rain = 0
KCL2 201002Z 18010KT 24/20 A2994 RMK A01 T02440204  RH  078%=      5-min Rain = 0
KCL2 201003Z 17012KT 24/20 A2994 RMK A01 T02440203  RH  078%=      5-min Rain = 0
KCL2 201004Z 18010KT 24/20 A2994 RMK A01 T02440204  RH  078%=      5-min Rain = 0
KCL2 201005Z 18010KT 24/20 A2994 RMK A01 T02440204  RH  078%=      5-min Rain = 0
KCL2 201006Z 18011KT 24/20 A2994 RMK A01 T02440204  RH  078%=      5-min Rain = 0
KCL2 201007Z 19011KT 24/20 A2994 RMK A01 T02430204  RH  078%=      5-min Rain = 0
KCL2 201008Z 18011G16KT 24/20 A2994 RMK A01 T02440204  RH  078%=      5-min Rain = 0
KCL2 201009Z 18010KT 24/20 A2994 RMK A01 T02430203  RH  078%=      5-min Rain = 0
KCL2 201010Z 18013KT 24/20 A2994 RMK A01 T02440204  RH  078%=      5-min Rain = 0
KCL2 201011Z 18012KT 24/20 A2994 RMK A01 T02430203  RH  078%=      5-min Rain = 0
KCL2 201012Z 18010G15KT 24/20 A2994 RMK A01 T02430204  RH  078%=      5-min Rain = 0
KCL2 201013Z 18013KT 24/20 A2994 RMK A01 T02430204  RH  079%=      5-min Rain = 0
KCL2 201014Z 18011G17KT 24/20 A2994 RMK A01 T02430204  RH  079%=      5-min Rain = 0
KCL2 201015Z 18009KT 24/20 A2994 RMK A01 T02430204  RH  079%=      5-min Rain = 0
KCL2 201016Z 18011KT 24/20 A2994 RMK A01 T02420204  RH  079%=      5-min Rain = 0
KCL2 201017Z 18010KT 24/20 A2994 RMK A01 T02420204  RH  079%=      5-min Rain = 0
KCL2 201018Z 18011KT 24/20 A2994 RMK A01 T02420204  RH  079%=      5-min Rain = 0
KCL2 201019Z 18010KT 24/20 A2994 RMK A01 T02420204  RH  079%=      5-min Rain = 0
KCL2 201020Z 18009G14KT 24/20 A2994 RMK A01 T02420204  RH  079%=      5-min Rain = 0
KCL2 201021Z 18010KT 24/20 A2994 RMK A01 T02410204  RH  079%=      5-min Rain = 0
KCL2 201022Z 18008KT 24/20 A2994 RMK A01 T02410204  RH  080%=      5-min Rain = 0
KCL2 201023Z 18009KT 24/20 A2994 RMK A01 T02410204  RH  080%=      5-min Rain = 0
KCL2 201024Z 17010KT 24/20 A2994 RMK A01 T02410204  RH  080%=      5-min Rain = 0
KCL2 201025Z 18010KT 24/20 A2994 RMK A01 T02410204  RH  080%=      5-min Rain = 0
KCL2 201026Z 18010KT 24/20 A2994 RMK A01 T02410204  RH  080%=      5-min Rain = 0
KCL2 201027Z 17009KT 24/20 A2994 RMK A01 T02410204  RH  080%=      5-min Rain = 0
KCL2 201028Z 18012KT 24/20 A2994 RMK A01 T02410204  RH  080%=      5-min Rain = 0
KCL2 201029Z 17011KT 24/20 A2994 RMK A01 T02410204  RH  080%=      5-min Rain = 0
KCL2 201030Z 18009KT 24/20 A2994 RMK A01 T02410204  RH  080%=      5-min Rain = 0
KCL2 201031Z 17009KT 24/20 A2994 RMK A01 T02410204  RH  080%=      5-min Rain = 0
KCL2 201032Z 18012G17KT 24/20 A2994 RMK A01 T02400204  RH  080%=      5-min Rain = 0
KCL2 201033Z 18013KT 24/20 A2994 RMK A01 T02390204  RH  080%=      5-min Rain = 0
KCL2 201034Z 18009KT 24/20 A2994 RMK A01 T02390203  RH  080%=      5-min Rain = 0
KCL2 201035Z 18009KT 24/20 A2994 RMK A01 T02400204  RH  080%=      5-min Rain = 0
KCL2 201036Z 18009KT 24/20 A2994 RMK A01 T02390204  RH  080%=      5-min Rain = 0
KCL2 201037Z 18009KT 24/20 A2994 RMK A01 T02390203  RH  081%=      5-min Rain = 0
KCL2 201038Z 18010KT 24/20 A2994 RMK A01 T02380203  RH  081%=      5-min Rain = 0
KCL2 201039Z 18012KT 24/20 A2994 RMK A01 T02380203  RH  081%=      5-min Rain = 0
KCL2 201040Z 18012KT 24/20 A2994 RMK A01 T02380203  RH  081%=      5-min Rain = 0
KCL2 201041Z 18011KT 24/20 A2994 RMK A01 T02380203  RH  081%=      5-min Rain = 0
KCL2 201042Z 18011KT 24/20 A2994 RMK A01 T02390203  RH  081%=      5-min Rain = 0
KCL2 201043Z 18010KT 24/20 A2994 RMK A01 T02390203  RH  081%=      5-min Rain = 0
KCL2 201044Z 18010KT 24/20 A2994 RMK A01 T02390203  RH  081%=      5-min Rain = 0
KCL2 201045Z 18010KT 24/20 A2994 RMK A01 T02380203  RH  081%=      5-min Rain = 0
KCL2 201046Z 18010KT 24/20 A2994 RMK A01 T02380204  RH  081%=      5-min Rain = 0
KCL2 201047Z 18012KT 24/20 A2994 RMK A01 T02380204  RH  081%=      5-min Rain = 0
KCL2 201048Z 18009KT 24/20 A2994 RMK A01 T02380203  RH  081%=      5-min Rain = 0
KCL2 201049Z 18010KT 24/20 A2994 RMK A01 T02370203  RH  081%=      5-min Rain = 0
KCL2 201050Z 18011KT 24/20 A2994 RMK A01 T02370203  RH  081%=      5-min Rain = 0
KCL2 201051Z 18010KT 24/20 A2994 RMK A01 T02360203  RH  081%=      5-min Rain = 0
KCL2 201052Z 18013G18KT 24/20 A2994 RMK A01 T02370203  RH  081%=      5-min Rain = 0
KCL2 201053Z 18012KT 24/20 A2994 RMK A01 T02370203  RH  081%=      5-min Rain = 0
KCL2 201054Z 18012KT 24/20 A2994 RMK A01 T02370203  RH  081%=      5-min Rain = 0
KCL2 201055Z 18010KT 24/20 A2994 RMK A01 T02370203  RH  081%=      5-min Rain = 0
KCL2 201056Z 18011KT 24/20 A2994 RMK A01 T02370203  RH  081%=      5-min Rain = 0
KCL2 201057Z 17011KT 24/20 A2994 RMK A01 T02370203  RH  081%=      5-min Rain = 0
KCL2 201058Z 17011KT 24/20 A2994 RMK A01 T02360203  RH  082%=      5-min Rain = 0
KCL2 201059Z 18011KT 24/20 A2994 RMK A01 T02360203  RH  082%=      5-min Rain = 0
KCL2 201100Z 18010KT 24/20 A2994 RMK A01 T02360203  RH  082%=      5-min Rain = 0
KCL2 201101Z 17008KT 24/20 A2994 RMK A01 T02360203  RH  082%=      5-min Rain = 0
KCL2 201102Z 18009KT 24/20 A2994 RMK A01 T02350203  RH  082%=      5-min Rain = 0
KCL2 201103Z 17011KT 24/20 A2994 RMK A01 T02350203  RH  082%=      5-min Rain = 0
KCL2 201104Z 17011KT 24/20 A2994 RMK A01 T02350203  RH  082%=      5-min Rain = 0
KCL2 201105Z 17011KT 24/20 A2994 RMK A01 T02350203  RH  082%=      5-min Rain = 0
KCL2 201106Z 18010KT 24/20 A2994 RMK A01 T02350202  RH  082%=      5-min Rain = 0
KCL2 201107Z 17010KT 24/20 A2994 RMK A01 T02350202  RH  082%=      5-min Rain = 0
KCL2 201108Z 18009KT 23/20 A2995 RMK A01 T02340203  RH  082%=      5-min Rain = 0
KCL2 201109Z 18009KT 23/20 A2995 RMK A01 T02340203  RH  082%=      5-min Rain = 0
KCL2 201110Z 18010KT 23/20 A2995 RMK A01 T02340203  RH  083%=      5-min Rain = 0
KCL2 201111Z 18011KT 23/20 A2995 RMK A01 T02340203  RH  083%=      5-min Rain = 0
KCL2 201112Z 18009KT 23/20 A2995 RMK A01 T02330202  RH  083%=      5-min Rain = 0
KCL2 201113Z 17012KT 23/20 A2995 RMK A01 T02330202  RH  083%=      5-min Rain = 0
KCL2 201114Z 18010KT 23/20 A2995 RMK A01 T02340202  RH  082%=      5-min Rain = 0
KCL2 201115Z 18010KT 23/20 A2995 RMK A01 T02340203  RH  082%=      5-min Rain = 0
KCL2 201116Z 18011KT 23/20 A2995 RMK A01 T02340202  RH  082%=      5-min Rain = 0
KCL2 201117Z 18012KT 23/20 A2995 RMK A01 T02340203  RH  083%=      5-min Rain = 0
KCL2 201118Z 18011G16KT 23/20 A2995 RMK A01 T02340202  RH  082%=      5-min Rain = 0
KCL2 201119Z 17010KT 23/20 A2995 RMK A01 T02340202  RH  082%=      5-min Rain = 0
KCL2 201120Z 18009KT 23/20 A2995 RMK A01 T02340202  RH  083%=      5-min Rain = 0
KCL2 201121Z 17010KT 23/20 A2995 RMK A01 T02330202  RH  083%=      5-min Rain = 0
KCL2 201122Z 17008KT 23/20 A2995 RMK A01 T02330202  RH  083%=      5-min Rain = 0
KCL2 201123Z 18009KT 23/20 A2995 RMK A01 T02320202  RH  083%=      5-min Rain = 0
KCL2 201124Z 17009KT 23/20 A2995 RMK A01 T02310202  RH  083%=      5-min Rain = 0
KCL2 201125Z 17009KT 23/20 A2995 RMK A01 T02310202  RH  083%=      5-min Rain = 0
KCL2 201126Z 18009KT 23/20 A2995 RMK A01 T02310202  RH  083%=      5-min Rain = 0
KCL2 201127Z 18009KT 23/20 A2995 RMK A01 T02310202  RH  084%=      5-min Rain = 0
KCL2 201128Z 17010KT 23/20 A2995 RMK A01 T02310202  RH  084%=      5-min Rain = 0
KCL2 201129Z 17008KT 23/20 A2995 RMK A01 T02310201  RH  084%=      5-min Rain = 0
KCL2 201130Z 17010KT 23/20 A2995 RMK A01 T02310202  RH  084%=      5-min Rain = 0
KCL2 201131Z 17008KT 23/20 A2995 RMK A01 T02310202  RH  084%=      5-min Rain = 0
KCL2 201132Z 17009KT 23/20 A2995 RMK A01 T02300201  RH  084%=      5-min Rain = 0
KCL2 201133Z 17010KT 23/20 A2995 RMK A01 T02300201  RH  084%=      5-min Rain = 0
KCL2 201134Z 17009KT 23/20 A2995 RMK A01 T02300201  RH  084%=      5-min Rain = 0
KCL2 201135Z 17008KT 23/20 A2995 RMK A01 T02300201  RH  084%=      5-min Rain = 0
KCL2 201136Z 17010KT 23/20 A2995 RMK A01 T02300201  RH  084%=      5-min Rain = 0
KCL2 201137Z 17010KT 23/20 A2995 RMK A01 T02290201  RH  084%=      5-min Rain = 0
KCL2 201138Z 17011KT 23/20 A2995 RMK A01 T02290201  RH  084%=      5-min Rain = 0
KCL2 201139Z 17011KT 23/20 A2995 RMK A01 T02290201  RH  084%=      5-min Rain = 0
KCL2 201140Z 17010KT 23/20 A2995 RMK A01 T02290201  RH  084%=      5-min Rain = 0
KCL2 201141Z 17009KT 23/20 A2995 RMK A01 T02290200  RH  084%=      5-min Rain = 0
KCL2 201142Z 17010KT 23/20 A2995 RMK A01 T02290201  RH  084%=      5-min Rain = 0
KCL2 201143Z 17010KT 23/20 A2995 RMK A01 T02290200  RH  084%=      5-min Rain = 0
KCL2 201144Z 17009KT 23/20 A2995 RMK A01 T02290201  RH  084%=      5-min Rain = 0
KCL2 201145Z 17009KT 23/20 A2995 RMK A01 T02290201  RH  084%=      5-min Rain = 0
KCL2 201146Z 18008KT 23/20 A2995 RMK A01 T02280200  RH  084%=      5-min Rain = 0
KCL2 201147Z 18009KT 23/20 A2995 RMK A01 T02280201  RH  084%=      5-min Rain = 0
KCL2 201148Z 17009KT 23/20 A2995 RMK A01 T02270200  RH  085%=      5-min Rain = 0
KCL2 201149Z 18009G15KT 23/20 A2995 RMK A01 T02270200  RH  085%=      5-min Rain = 0
KCL2 201150Z 18010KT 23/20 A2995 RMK A01 T02270200  RH  085%=      5-min Rain = 0
KCL2 201151Z 18011KT 23/20 A2995 RMK A01 T02270200  RH  084%=      5-min Rain = 0
KCL2 201152Z 17011KT 23/20 A2995 RMK A01 T02280200  RH  084%=      5-min Rain = 0
KCL2 201153Z 18010KT 23/20 A2995 RMK A01 T02280199  RH  084%=      5-min Rain = 0
KCL2 201154Z 18010KT 23/20 A2995 RMK A01 T02280199  RH  084%=      5-min Rain = 0
KCL2 201155Z 17010KT 23/20 A2995 RMK A01 T02280199  RH  084%=      5-min Rain = 0
KCL2 201156Z 17009KT 23/20 A2996 RMK A01 T02280200  RH  084%=      5-min Rain = 0
KCL2 201157Z 17011KT 23/20 A2995 RMK A01 T02270199  RH  084%=      5-min Rain = 0
KCL2 201158Z 17010KT 23/20 A2995 RMK A01 T02270199  RH  084%=      5-min Rain = 0
KCL2 201159Z 17011KT 23/20 A2995 RMK A01 T02270199  RH  084%=      5-min Rain = 0
KCL2 201200Z 18010KT 23/20 A2996 RMK A01 T02270199  RH  084%=      5-min Rain = 0
KCL2 201201Z 17008KT 23/20 A2996 RMK A01 T02270199  RH  084%=      5-min Rain = 0
KCL2 201202Z 18009KT 23/20 A2996 RMK A01 T02270199  RH  084%=      5-min Rain = 0
KCL2 201203Z 17010KT 23/20 A2996 RMK A01 T02270199  RH  084%=      5-min Rain = 0
KCL2 201204Z 18008KT 23/20 A2996 RMK A01 T02270199  RH  084%=      5-min Rain = 0
KCL2 201205Z 18009KT 23/20 A2996 RMK A01 T02270199  RH  084%=      5-min Rain = 0
KCL2 201206Z 17010KT 23/20 A2996 RMK A01 T02270199  RH  084%=      5-min Rain = 0
KCL2 201207Z 18009KT 23/20 A2996 RMK A01 T02270199  RH  084%=      5-min Rain = 0
KCL2 201208Z 18011KT 23/20 A2996 RMK A01 T02270198  RH  084%=      5-min Rain = 0
KCL2 201209Z 17011KT 23/20 A2996 RMK A01 T02270198  RH  084%=      5-min Rain = 0
KCL2 201210Z 18011KT 23/20 A2996 RMK A01 T02270198  RH  084%=      5-min Rain = 0
KCL2 201211Z 18011KT 23/20 A2996 RMK A01 T02280198  RH  083%=      5-min Rain = 0
KCL2 201212Z 18011KT 23/20 A2996 RMK A01 T02270198  RH  083%=      5-min Rain = 0
KCL2 201213Z 18011KT 23/20 A2996 RMK A01 T02280198  RH  083%=      5-min Rain = 0
KCL2 201214Z 18010KT 23/20 A2996 RMK A01 T02280198  RH  083%=      5-min Rain = 0
KCL2 201215Z 18010KT 23/20 A2996 RMK A01 T02280197  RH  083%=      5-min Rain = 0
KCL2 201216Z 18011KT 23/20 A2996 RMK A01 T02280198  RH  083%=      5-min Rain = 0
KCL2 201217Z 18009KT 23/20 A2996 RMK A01 T02280198  RH  083%=      5-min Rain = 0
KCL2 201218Z 18012KT 23/20 A2996 RMK A01 T02280197  RH  083%=      5-min Rain = 0
KCL2 201219Z 18011KT 23/20 A2996 RMK A01 T02280197  RH  083%=      5-min Rain = 0
KCL2 201220Z 18010KT 23/20 A2996 RMK A01 T02280197  RH  083%=      5-min Rain = 0
KCL2 201221Z 18010KT 23/20 A2996 RMK A01 T02280197  RH  083%=      5-min Rain = 0
KCL2 201222Z 18011KT 23/20 A2996 RMK A01 T02280197  RH  082%=      5-min Rain = 0
KCL2 201223Z 18010KT 23/20 A2996 RMK A01 T02280196  RH  082%=      5-min Rain = 0
KCL2 201224Z 18010KT 23/20 A2996 RMK A01 T02280197  RH  082%=      5-min Rain = 0
KCL2 201225Z 18008KT 23/20 A2996 RMK A01 T02290197  RH  082%=      5-min Rain = 0
KCL2 201226Z 17008KT 23/20 A2996 RMK A01 T02280196  RH  082%=      5-min Rain = 0
KCL2 201227Z 18009KT 23/20 A2996 RMK A01 T02280196  RH  082%=      5-min Rain = 0
KCL2 201228Z 18009KT 23/20 A2996 RMK A01 T02280196  RH  082%=      5-min Rain = 0
KCL2 201229Z 18010KT 23/20 A2996 RMK A01 T02280196  RH  082%=      5-min Rain = 0
KCL2 201230Z 17008KT 23/20 A2996 RMK A01 T02290197  RH  082%=      5-min Rain = 0
KCL2 201231Z 17007KT 23/20 A2996 RMK A01 T02290196  RH  082%=      5-min Rain = 0
KCL2 201232Z 18008KT 23/20 A2996 RMK A01 T02290196  RH  082%=      5-min Rain = 0
KCL2 201233Z 18008KT 23/20 A2996 RMK A01 T02290196  RH  082%=      5-min Rain = 0
KCL2 201234Z 17008KT 23/20 A2996 RMK A01 T02290196  RH  082%=      5-min Rain = 0
KCL2 201235Z 17008KT 23/20 A2996 RMK A01 T02290196  RH  082%=      5-min Rain = 0
KCL2 201236Z 18008KT 23/20 A2996 RMK A01 T02290196  RH  082%=      5-min Rain = 0
KCL2 201237Z 17008KT 23/20 A2996 RMK A01 T02290196  RH  082%=      5-min Rain = 0
KCL2 201238Z 17009KT 23/20 A2996 RMK A01 T02290196  RH  081%=      5-min Rain = 0
KCL2 201239Z 18010KT 23/20 A2996 RMK A01 T02300196  RH  081%=      5-min Rain = 0
KCL2 201240Z 17008KT 23/20 A2996 RMK A01 T02300196  RH  081%=      5-min Rain = 0
KCL2 201241Z 17008KT 23/20 A2996 RMK A01 T02300196  RH  081%=      5-min Rain = 0
KCL2 201242Z 18011KT 23/20 A2996 RMK A01 T02300196  RH  081%=      5-min Rain = 0
KCL2 201243Z 17009KT 23/20 A2996 RMK A01 T02300196  RH  081%=      5-min Rain = 0
KCL2 201244Z 17008KT 23/20 A2996 RMK A01 T02310196  RH  081%=      5-min Rain = 0
KCL2 201245Z 18008KT 23/20 A2996 RMK A01 T02310196  RH  081%=      5-min Rain = 0
KCL2 201246Z 18009KT 23/20 A2996 RMK A01 T02310196  RH  081%=      5-min Rain = 0
KCL2 201247Z 17010KT 23/20 A2996 RMK A01 T02310196  RH  081%=      5-min Rain = 0
KCL2 201248Z 17008KT 23/20 A2996 RMK A01 T02310196  RH  080%=      5-min Rain = 0
KCL2 201249Z 18011KT 23/20 A2996 RMK A01 T02320196  RH  080%=      5-min Rain = 0
KCL2 201250Z 18011KT 23/20 A2996 RMK A01 T02320195  RH  080%=      5-min Rain = 0
KCL2 201251Z 18009KT 23/20 A2996 RMK A01 T02320195  RH  080%=      5-min Rain = 0
KCL2 201252Z 17008KT 23/20 A2996 RMK A01 T02330195  RH  079%=      5-min Rain = 0
KCL2 201253Z 18009KT 23/20 A2996 RMK A01 T02330196  RH  079%=      5-min Rain = 0
KCL2 201254Z 18009KT 23/20 A2996 RMK A01 T02330195  RH  079%=      5-min Rain = 0
KCL2 201255Z 18007KT 23/20 A2996 RMK A01 T02330195  RH  079%=      5-min Rain = 0
KCL2 201256Z 18007KT 23/20 A2997 RMK A01 T02330195  RH  079%=      5-min Rain = 0
KCL2 201257Z 17008KT 23/20 A2997 RMK A01 T02340195  RH  079%=      5-min Rain = 0
KCL2 201258Z 18009KT 23/20 A2997 RMK A01 T02340195  RH  079%=      5-min Rain = 0
KCL2 201259Z 18009KT 23/20 A2997 RMK A01 T02340195  RH  078%=      5-min Rain = 0
KCL2 201300Z 18008KT 24/20 A2997 RMK A01 T02350195  RH  078%=      5-min Rain = 0
KCL2 201301Z 18009KT 24/20 A2997 RMK A01 T02350195  RH  078%=      5-min Rain = 0
KCL2 201302Z 18009KT 24/20 A2997 RMK A01 T02360195  RH  078%=      5-min Rain = 0
KCL2 201303Z 18008KT 24/19 A2997 RMK A01 T02360194  RH  078%=      5-min Rain = 0
KCL2 201304Z 18010G15KT 24/20 A2997 RMK A01 T02360195  RH  078%=      5-min Rain = 0
KCL2 201305Z 18011KT 24/19 A2997 RMK A01 T02360194  RH  077%=      5-min Rain = 0
KCL2 201306Z 18011KT 24/19 A2997 RMK A01 T02360194  RH  077%=      5-min Rain = 0
KCL2 201307Z 18009KT 24/19 A2997 RMK A01 T02360194  RH  077%=      5-min Rain = 0
KCL2 201308Z 18010KT 24/19 A2997 RMK A01 T02370194  RH  077%=      5-min Rain = 0
KCL2 201309Z 18010KT 24/19 A2997 RMK A01 T02380193  RH  076%=      5-min Rain = 0
KCL2 201310Z 18011KT 24/19 A2997 RMK A01 T02370193  RH  076%=      5-min Rain = 0
KCL2 201311Z 18009KT 24/19 A2997 RMK A01 T02380194  RH  076%=      5-min Rain = 0
KCL2 201312Z 18009KT 24/19 A2997 RMK A01 T02380194  RH  076%=      5-min Rain = 0
KCL2 201313Z 18007KT 24/19 A2997 RMK A01 T02390194  RH  076%=      5-min Rain = 0
KCL2 201314Z 18009G15KT 24/19 A2997 RMK A01 T02390194  RH  076%=      5-min Rain = 0
KCL2 201315Z 18009KT 24/19 A2997 RMK A01 T02400193  RH  075%=      5-min Rain = 0
KCL2 201316Z 18010KT 24/19 A2997 RMK A01 T02400194  RH  075%=      5-min Rain = 0
KCL2 201317Z 18008KT 24/19 A2997 RMK A01 T02400193  RH  075%=      5-min Rain = 0
KCL2 201318Z 18009G15KT 24/19 A2997 RMK A01 T02400194  RH  075%=      5-min Rain = 0
KCL2 201319Z 18014KT 24/19 A2997 RMK A01 T02410193  RH  074%=      5-min Rain = 0
KCL2 201320Z 18011KT 24/19 A2997 RMK A01 T02410192  RH  074%=      5-min Rain = 0
KCL2 201321Z 18010KT 24/19 A2997 RMK A01 T02410194  RH  075%=      5-min Rain = 0
KCL2 201322Z 18010KT 24/19 A2997 RMK A01 T02410193  RH  075%=      5-min Rain = 0
KCL2 201323Z 19008KT 24/19 A2998 RMK A01 T02420194  RH  075%=      5-min Rain = 0
KCL2 201324Z 18013G18KT 24/19 A2997 RMK A01 T02430194  RH  074%=      5-min Rain = 0
KCL2 201325Z 18012KT 24/19 A2997 RMK A01 T02420192  RH  073%=      5-min Rain = 0
KCL2 201326Z 19013KT 24/19 A2997 RMK A01 T02420191  RH  073%=      5-min Rain = 0
KCL2 201327Z 18009KT 24/19 A2997 RMK A01 T02420192  RH  073%=      5-min Rain = 0
KCL2 201328Z 19008G13KT 24/19 A2998 RMK A01 T02420193  RH  074%=      5-min Rain = 0
KCL2 201329Z 19011KT 24/19 A2998 RMK A01 T02430193  RH  073%=      5-min Rain = 0
KCL2 201330Z 17007KT 24/19 A2998 RMK A01 T02430192  RH  073%=      5-min Rain = 0
KCL2 201331Z 19007KT 24/19 A2998 RMK A01 T02440194  RH  074%=      5-min Rain = 0
KCL2 201332Z 18010KT 25/19 A2998 RMK A01 T02450194  RH  073%=      5-min Rain = 0
KCL2 201333Z 19011KT 25/19 A2998 RMK A01 T02460192  RH  072%=      5-min Rain = 0
KCL2 201334Z 19012KT 25/19 A2998 RMK A01 T02460190  RH  071%=      5-min Rain = 0
KCL2 201335Z 19009KT 25/19 A2998 RMK A01 T02460191  RH  071%=      5-min Rain = 0
KCL2 201336Z 19009KT 25/19 A2998 RMK A01 T02450191  RH  072%=      5-min Rain = 0
KCL2 201337Z 19007KT 25/19 A2998 RMK A01 T02460193  RH  072%=      5-min Rain = 0
KCL2 201338Z 19007KT 25/19 A2998 RMK A01 T02470192  RH  071%=      5-min Rain = 0
KCL2 201339Z 19007KT 25/19 A2998 RMK A01 T02480192  RH  071%=      5-min Rain = 0
KCL2 201340Z 18010KT 25/19 A2998 RMK A01 T02490192  RH  070%=      5-min Rain = 0
KCL2 201341Z 19008KT 25/19 A2998 RMK A01 T02500190  RH  070%=      5-min Rain = 0
KCL2 201342Z 19009KT 25/19 A2998 RMK A01 T02500191  RH  070%=      5-min Rain = 0
KCL2 201343Z 19008KT 25/19 A2998 RMK A01 T02490190  RH  070%=      5-min Rain = 0
KCL2 201344Z 19010KT 25/19 A2998 RMK A01 T02500189  RH  069%=      5-min Rain = 0
KCL2 201345Z 19010KT 25/19 A2998 RMK A01 T02500189  RH  069%=      5-min Rain = 0
KCL2 201346Z 19010KT 25/19 A2998 RMK A01 T02500190  RH  069%=      5-min Rain = 0
KCL2 201347Z 18012KT 25/19 A2998 RMK A01 T02510189  RH  068%=      5-min Rain = 0
KCL2 201348Z 19011KT 25/19 A2998 RMK A01 T02510188  RH  068%=      5-min Rain = 0
KCL2 201349Z 19010KT 25/19 A2998 RMK A01 T02520190  RH  069%=      5-min Rain = 0
KCL2 201350Z 18010KT 25/19 A2998 RMK A01 T02530190  RH  068%=      5-min Rain = 0
KCL2 201351Z 18010KT 25/19 A2998 RMK A01 T02530189  RH  068%=      5-min Rain = 0
KCL2 201352Z 18009KT 25/19 A2998 RMK A01 T02530189  RH  068%=      5-min Rain = 0
KCL2 201353Z 18010KT 25/19 A2998 RMK A01 T02530189  RH  067%=      5-min Rain = 0
KCL2 201354Z 18008KT 25/19 A2998 RMK A01 T02530190  RH  068%=      5-min Rain = 0
KCL2 201355Z 19011KT 25/19 A2998 RMK A01 T02540189  RH  067%=      5-min Rain = 0
KCL2 201356Z 18010KT 25/19 A2998 RMK A01 T02540188  RH  067%=      5-min Rain = 0
KCL2 201357Z 19008KT 25/19 A2998 RMK A01 T02540190  RH  067%=      5-min Rain = 0
KCL2 201358Z 20011KT 26/19 A2998 RMK A01 T02560189  RH  066%=      5-min Rain = 0
KCL2 201359Z 18009KT 26/19 A2998 RMK A01 T02560188  RH  066%=      5-min Rain = 0
KCL2 201400Z 18008KT 26/19 A2998 RMK A01 T02560189  RH  066%=      5-min Rain = 0
KCL2 201401Z 18009KT 26/19 A2998 RMK A01 T02560190  RH  067%=      5-min Rain = 0
KCL2 201402Z 18010KT 26/19 A2998 RMK A01 T02570189  RH  066%=      5-min Rain = 0
KCL2 201403Z 18010KT 26/19 A2998 RMK A01 T02570188  RH  065%=      5-min Rain = 0
KCL2 201404Z 19011KT 26/19 A2998 RMK A01 T02580188  RH  065%=      5-min Rain = 0
KCL2 201405Z 19012KT 26/19 A2998 RMK A01 T02570186  RH  065%=      5-min Rain = 0
KCL2 201406Z 19010KT 26/19 A2998 RMK A01 T02570186  RH  064%=      5-min Rain = 0
KCL2 201407Z 18010KT 26/19 A2998 RMK A01 T02580187  RH  065%=      5-min Rain = 0
KCL2 201408Z 19010KT 26/19 A2998 RMK A01 T02590189  RH  065%=      5-min Rain = 0
KCL2 201409Z 17011KT 26/19 A2998 RMK A01 T02600186  RH  064%=      5-min Rain = 0
KCL2 201410Z 18012KT 26/19 A2998 RMK A01 T02600185  RH  063%=      5-min Rain = 0
KCL2 201411Z 19009KT 26/19 A2998 RMK A01 T02590185  RH  064%=      5-min Rain = 0
KCL2 201412Z 18008KT 26/19 A2998 RMK A01 T02600187  RH  064%=      5-min Rain = 0
KCL2 201413Z 18012KT 26/19 A2998 RMK A01 T02610187  RH  064%=      5-min Rain = 0
KCL2 201414Z 18010KT 26/19 A2998 RMK A01 T02620186  RH  063%=      5-min Rain = 0
KCL2 201415Z 18008KT 26/19 A2998 RMK A01 T02620187  RH  063%=      5-min Rain = 0
KCL2 201416Z 18012KT 26/19 A2998 RMK A01 T02630186  RH  063%=      5-min Rain = 0
KCL2 201417Z 20010KT 26/18 A2998 RMK A01 T02630184  RH  062%=      5-min Rain = 0
KCL2 201418Z 19010KT 26/19 A2998 RMK A01 T02620185  RH  063%=      5-min Rain = 0
KCL2 201419Z 19009KT 26/18 A2998 RMK A01 T02620184  RH  062%=      5-min Rain = 0
KCL2 201420Z 19010KT 26/19 A2998 RMK A01 T02630186  RH  063%=      5-min Rain = 0
KCL2 201421Z 20011KT 26/19 A2998 RMK A01 T02640185  RH  062%=      5-min Rain = 0
KCL2 201422Z 20010KT 26/19 A2998 RMK A01 T02640186  RH  062%=      5-min Rain = 0
KCL2 201423Z 21010KT 27/19 A2998 RMK A01 T02650186  RH  062%=      5-min Rain = 0
KCL2 201424Z 20009KT 27/19 A2998 RMK A01 T02650187  RH  062%=      5-min Rain = 0
KCL2 201425Z 20010KT 27/19 A2998 RMK A01 T02670189  RH  062%=      5-min Rain = 0
KCL2 201426Z 20011KT 27/19 A2998 RMK A01 T02680187  RH  061%=      5-min Rain = 0
KCL2 201427Z 18012KT 27/19 A2998 RMK A01 T02680188  RH  061%=      5-min Rain = 0
KCL2 201428Z 19010KT 27/19 A2998 RMK A01 T02680186  RH  061%=      5-min Rain = 0
KCL2 201429Z 19010KT 27/19 A2998 RMK A01 T02670188  RH  062%=      5-min Rain = 0
KCL2 201430Z 18011KT 27/19 A2998 RMK A01 T02680187  RH  061%=      5-min Rain = 0
KCL2 201431Z 20011KT 27/19 A2998 RMK A01 T02680187  RH  061%=      5-min Rain = 0
KCL2 201432Z 18011KT 27/19 A2998 RMK A01 T02680187  RH  061%=      5-min Rain = 0
KCL2 201433Z 20011KT 27/19 A2998 RMK A01 T02680187  RH  061%=      5-min Rain = 0
KCL2 201434Z 19013KT 27/19 A2998 RMK A01 T02680187  RH  061%=      5-min Rain = 0
KCL2 201435Z 19011KT 27/19 A2998 RMK A01 T02680186  RH  061%=      5-min Rain = 0
KCL2 201436Z 18012KT 27/19 A2998 RMK A01 T02680187  RH  061%=      5-min Rain = 0
KCL2 201437Z 19011KT 27/19 A2998 RMK A01 T02690188  RH  061%=      5-min Rain = 0
KCL2 201438Z 18013KT 27/19 A2998 RMK A01 T02700188  RH  061%=      5-min Rain = 0
KCL2 201439Z 18013KT 27/19 A2998 RMK A01 T02700188  RH  061%=      5-min Rain = 0
KCL2 201440Z 18012KT 27/19 A2998 RMK A01 T02700189  RH  061%=      5-min Rain = 0
KCL2 201441Z 18010KT 27/19 A2998 RMK A01 T02700189  RH  061%=      5-min Rain = 0
KCL2 201442Z 18011KT 27/19 A2998 RMK A01 T02710189  RH  061%=      5-min Rain = 0
KCL2 201443Z 18011KT 27/19 A2998 RMK A01 T02710190  RH  061%=      5-min Rain = 0
KCL2 201444Z 19010KT 27/19 A2998 RMK A01 T02730192  RH  061%=      5-min Rain = 0
KCL2 201445Z 19009KT 28/19 A2998 RMK A01 T02750194  RH  061%=      5-min Rain = 0
KCL2 201446Z 19010KT 28/19 A2998 RMK A01 T02760192  RH  060%=      5-min Rain = 0
KCL2 201447Z 19011KT 28/19 A2998 RMK A01 T02750193  RH  061%=      5-min Rain = 0
KCL2 201448Z 18010KT 28/19 A2998 RMK A01 T02750194  RH  061%=      5-min Rain = 0
KCL2 201449Z 20009KT 28/20 A2998 RMK A01 T02770195  RH  061%=      5-min Rain = 0
KCL2 201450Z 18010KT 28/20 A2998 RMK A01 T02780196  RH  061%=      5-min Rain = 0
KCL2 201451Z 18011KT 28/19 A2998 RMK A01 T02790194  RH  060%=      5-min Rain = 0
KCL2 201452Z 18012KT 28/19 A2998 RMK A01 T02790194  RH  060%=      5-min Rain = 0
KCL2 201453Z 18012KT 28/19 A2998 RMK A01 T02770192  RH  060%=      5-min Rain = 0
KCL2 201454Z 19009KT 28/19 A2998 RMK A01 T02750193  RH  061%=      5-min Rain = 0
KCL2 201455Z 21012KT 28/20 A2998 RMK A01 T02750195  RH  061%=      5-min Rain = 0
KCL2 201456Z 20010KT 28/20 A2998 RMK A01 T02770195  RH  061%=      5-min Rain = 0
KCL2 201457Z 19012KT 28/20 A2998 RMK A01 T02780195  RH  061%=      5-min Rain = 0
KCL2 201458Z 20014KT 28/20 A2998 RMK A01 T02790196  RH  061%=      5-min Rain = 0
KCL2 201459Z 20014KT 28/20 A2998 RMK A01 T02790195  RH  060%=      5-min Rain = 0
KCL2 201500Z 20011KT 28/20 A2998 RMK A01 T02780195  RH  061%=      5-min Rain = 0
KCL2 201501Z 19011KT 28/20 A2998 RMK A01 T02780197  RH  061%=      5-min Rain = 0
KCL2 201502Z 20012KT 28/20 A2998 RMK A01 T02790196  RH  061%=      5-min Rain = 0
KCL2 201503Z 19008KT 28/20 A2998 RMK A01 T02800198  RH  061%=      5-min Rain = 0
KCL2 201504Z 18007G12KT 28/20 A2998 RMK A01 T02820201  RH  062%=      5-min Rain = 0
KCL2 201505Z 18011KT 29/20 A2998 RMK A01 T02850201  RH  060%=      5-min Rain = 0
KCL2 201506Z 18014KT 29/20 A2998 RMK A01 T02860198  RH  059%=      5-min Rain = 0
KCL2 201507Z 19012KT 28/20 A2998 RMK A01 T02830197  RH  060%=      5-min Rain = 0
KCL2 201508Z 19012KT 28/20 A2998 RMK A01 T02810198  RH  061%=      5-min Rain = 0
KCL2 201509Z 18011KT 28/20 A2998 RMK A01 T02810198  RH  061%=      5-min Rain = 0
KCL2 201510Z 19008KT 28/20 A2998 RMK A01 T02820199  RH  061%=      5-min Rain = 0
KCL2 201511Z 19010KT 28/20 A2998 RMK A01 T02830201  RH  061%=      5-min Rain = 0
KCL2 201512Z 19012KT 29/20 A2998 RMK A01 T02850200  RH  060%=      5-min Rain = 0
KCL2 201513Z 19013KT 28/20 A2998 RMK A01 T02840198  RH  060%=      5-min Rain = 0
KCL2 201514Z 19012KT 28/20 A2998 RMK A01 T02820198  RH  060%=      5-min Rain = 0
KCL2 201515Z 19012KT 28/20 A2998 RMK A01 T02820200  RH  061%=      5-min Rain = 0
KCL2 201516Z 19012KT 28/20 A2998 RMK A01 T02840199  RH  060%=      5-min Rain = 0
KCL2 201517Z 19013KT 28/20 A2998 RMK A01 T02840199  RH  060%=      5-min Rain = 0
KCL2 201518Z 19013KT 28/20 A2998 RMK A01 T02830199  RH  060%=      5-min Rain = 0
KCL2 201519Z 20011KT 28/20 A2998 RMK A01 T02830200  RH  061%=      5-min Rain = 0
KCL2 201520Z 20014KT 29/20 A2998 RMK A01 T02850200  RH  060%=      5-min Rain = 0
KCL2 201521Z 20012KT 29/20 A2998 RMK A01 T02860199  RH  059%=      5-min Rain = 0
KCL2 201522Z 21011KT 29/20 A2998 RMK A01 T02860201  RH  060%=      5-min Rain = 0
KCL2 201523Z 21010KT 29/20 A2998 RMK A01 T02870202  RH  060%=      5-min Rain = 0
KCL2 201524Z 20010KT 29/20 A2998 RMK A01 T02880202  RH  060%=      5-min Rain = 0
KCL2 201525Z 18011KT 29/20 A2998 RMK A01 T02890201  RH  059%=      5-min Rain = 0
KCL2 201526Z 18010KT 29/20 A2998 RMK A01 T02880202  RH  060%=      5-min Rain = 0
KCL2 201527Z 18012KT 29/20 A2998 RMK A01 T02900202  RH  059%=      5-min Rain = 0
KCL2 201528Z 18012KT 29/20 A2998 RMK A01 T02900200  RH  058%=      5-min Rain = 0
KCL2 201529Z 18012KT 29/20 A2998 RMK A01 T02880201  RH  059%=      5-min Rain = 0
KCL2 201530Z 18013KT 29/20 A2998 RMK A01 T02880201  RH  060%=      5-min Rain = 0
KCL2 201531Z 18013KT 29/20 A2998 RMK A01 T02870199  RH  059%=      5-min Rain = 0
KCL2 201532Z 18014KT 29/20 A2998 RMK A01 T02860201  RH  060%=      5-min Rain = 0
KCL2 201533Z 18012KT 29/20 A2998 RMK A01 T02860200  RH  059%=      5-min Rain = 0
KCL2 201534Z 18011KT 29/20 A2998 RMK A01 T02860201  RH  060%=      5-min Rain = 0
KCL2 201535Z 18014KT 29/20 A2998 RMK A01 T02860200  RH  060%=      5-min Rain = 0
KCL2 201536Z 18011KT 29/20 A2998 RMK A01 T02870201  RH  060%=      5-min Rain = 0
KCL2 201537Z 18010KT 29/20 A2998 RMK A01 T02880204  RH  060%=      5-min Rain = 0
KCL2 201538Z 18014KT 29/20 A2998 RMK A01 T02900201  RH  059%=      5-min Rain = 0
KCL2 201539Z 19011KT 29/20 A2998 RMK A01 T02900201  RH  059%=      5-min Rain = 0
KCL2 201540Z 19015KT 29/20 A2998 RMK A01 T02910201  RH  058%=      5-min Rain = 0
KCL2 201541Z 18014KT 29/20 A2998 RMK A01 T02920200  RH  058%=      5-min Rain = 0
KCL2 201542Z 19013KT 29/20 A2998 RMK A01 T02920201  RH  058%=      5-min Rain = 0
KCL2 201543Z 20014KT 29/20 A2998 RMK A01 T02930200  RH  057%=      5-min Rain = 0
KCL2 201544Z 20013KT 29/20 A2998 RMK A01 T02920199  RH  057%=      5-min Rain = 0
KCL2 201545Z 20012KT 29/20 A2998 RMK A01 T02910201  RH  058%=      5-min Rain = 0
KCL2 201546Z 19010KT 29/20 A2998 RMK A01 T02920204  RH  059%=      5-min Rain = 0
KCL2 201547Z 18011KT 29/21 A2998 RMK A01 T02940206  RH  059%=      5-min Rain = 0
KCL2 201548Z 17012KT 30/20 A2998 RMK A01 T02950202  RH  057%=      5-min Rain = 0
KCL2 201549Z 17014KT 29/20 A2998 RMK A01 T02940203  RH  058%=      5-min Rain = 0
KCL2 201550Z 18014KT 29/20 A2998 RMK A01 T02940202  RH  057%=      5-min Rain = 0
KCL2 201551Z 18015KT 30/20 A2998 RMK A01 T02950201  RH  057%=      5-min Rain = 0
KCL2 201552Z 18013KT 30/20 A2998 RMK A01 T02950201  RH  057%=      5-min Rain = 0
KCL2 201553Z 19014KT 30/20 A2998 RMK A01 T02950202  RH  057%=      5-min Rain = 0
KCL2 201554Z 18012KT 29/20 A2998 RMK A01 T02940202  RH  058%=      5-min Rain = 0
KCL2 201555Z 19011KT 30/21 A2998 RMK A01 T02950205  RH  059%=      5-min Rain = 0
KCL2 201556Z 19011KT 30/21 A2998 RMK A01 T02970205  RH  058%=      5-min Rain = 0
KCL2 201557Z 18011KT 30/21 A2998 RMK A01 T02980206  RH  058%=      5-min Rain = 0
KCL2 201558Z 18012KT 30/20 A2998 RMK A01 T02990204  RH  057%=      5-min Rain = 0
KCL2 201559Z 18011KT 30/21 A2998 RMK A01 T02990206  RH  057%=      5-min Rain = 0
KCL2 201600Z 18010KT 30/21 A2998 RMK A01 T03000207  RH  057%=      5-min Rain = 0
KCL2 201601Z 19011KT 30/21 A2998 RMK A01 T03020208  RH  057%=      5-min Rain = 0
KCL2 201602Z 19011KT 30/20 A2998 RMK A01 T03030204  RH  056%=      5-min Rain = 0
KCL2 201603Z 19012KT 30/20 A2998 RMK A01 T03020204  RH  056%=      5-min Rain = 0
KCL2 201604Z 18011KT 30/20 A2998 RMK A01 T03010203  RH  056%=      5-min Rain = 0
KCL2 201605Z 19008KT 30/21 A2998 RMK A01 T02990206  RH  058%=      5-min Rain = 0
KCL2 201606Z 20011KT 30/21 A2998 RMK A01 T03010206  RH  057%=      5-min Rain = 0
KCL2 201607Z 19008KT 30/21 A2998 RMK A01 T03030208  RH  057%=      5-min Rain = 0
KCL2 201608Z 18012G17KT 30/21 A2997 RMK A01 T03040208  RH  056%=      5-min Rain = 0
KCL2 201609Z 18015KT 31/20 A2997 RMK A01 T03050204  RH  055%=      5-min Rain = 0
KCL2 201610Z 18012KT 30/20 A2997 RMK A01 T03030202  RH  055%=      5-min Rain = 0
KCL2 201611Z 18013KT 30/20 A2997 RMK A01 T03010204  RH  056%=      5-min Rain = 0
KCL2 201612Z 19012KT 30/20 A2997 RMK A01 T03020201  RH  055%=      5-min Rain = 0
KCL2 201613Z 19010KT 30/20 A2997 RMK A01 T03020204  RH  056%=      5-min Rain = 0
KCL2 201614Z 20009KT 30/20 A2997 RMK A01 T03030203  RH  055%=      5-min Rain = 0
KCL2 201615Z 20011KT 31/20 A2997 RMK A01 T03050204  RH  055%=      5-min Rain = 0
KCL2 201616Z 18011KT 31/20 A2997 RMK A01 T03060204  RH  054%=      5-min Rain = 0
KCL2 201617Z 18011KT 31/20 A2997 RMK A01 T03060202  RH  054%=      5-min Rain = 0
KCL2 201618Z 19009KT 31/20 A2997 RMK A01 T03050204  RH  055%=      5-min Rain = 0
KCL2 201619Z 18013KT 31/20 A2997 RMK A01 T03060201  RH  054%=      5-min Rain = 0
KCL2 201620Z 18010KT 31/20 A2997 RMK A01 T03060200  RH  053%=      5-min Rain = 0
KCL2 201621Z 18011KT 31/20 A2997 RMK A01 T03050201  RH  054%=      5-min Rain = 0
KCL2 201622Z 19013KT 30/20 A2997 RMK A01 T03040201  RH  054%=      5-min Rain = 0
KCL2 201623Z 19012KT 30/20 A2997 RMK A01 T03040201  RH  054%=      5-min Rain = 0
KCL2 201624Z 18014KT 30/20 A2997 RMK A01 T03040200  RH  054%=      5-min Rain = 0
KCL2 201625Z 18013KT 30/20 A2997 RMK A01 T03040197  RH  053%=      5-min Rain = 0
KCL2 201626Z 18012KT 30/20 A2997 RMK A01 T03040197  RH  053%=      5-min Rain = 0
KCL2 201627Z 18012KT 30/20 A2997 RMK A01 T03040198  RH  053%=      5-min Rain = 0
KCL2 201628Z 18012KT 31/20 A2997 RMK A01 T03050200  RH  054%=      5-min Rain = 0
KCL2 201629Z 18011KT 31/20 A2997 RMK A01 T03060201  RH  053%=      5-min Rain = 0
KCL2 201630Z 17011KT 31/20 A2997 RMK A01 T03080203  RH  054%=      5-min Rain = 0
KCL2 201631Z 19010KT 31/21 A2997 RMK A01 T03090205  RH  054%=      5-min Rain = 0
KCL2 201632Z 18013KT 31/20 A2997 RMK A01 T03100204  RH  053%=      5-min Rain = 0
KCL2 201633Z 17015KT 31/20 A2997 RMK A01 T03100202  RH  053%=      5-min Rain = 0
KCL2 201634Z 18013KT 31/20 A2997 RMK A01 T03090200  RH  052%=      5-min Rain = 0
KCL2 201635Z 18011KT 31/20 A2997 RMK A01 T03090201  RH  053%=      5-min Rain = 0
KCL2 201636Z 20008KT 31/20 A2997 RMK A01 T03090202  RH  053%=      5-min Rain = 0
KCL2 201637Z 19011KT 31/20 A2997 RMK A01 T03110203  RH  053%=      5-min Rain = 0
KCL2 201638Z 19011KT 31/20 A2997 RMK A01 T03140203  RH  052%=      5-min Rain = 0
KCL2 201639Z 21013KT 32/20 A2997 RMK A01 T03150200  RH  050%=      5-min Rain = 0
KCL2 201640Z 21012KT 31/20 A2997 RMK A01 T03130199  RH  051%=      5-min Rain = 0
KCL2 201641Z 20010G15KT 31/20 A2997 RMK A01 T03110199  RH  051%=      5-min Rain = 0
KCL2 201642Z 19010KT 31/20 A2997 RMK A01 T03110201  RH  052%=      5-min Rain = 0
KCL2 201643Z 19012KT 31/20 A2997 RMK A01 T03140199  RH  051%=      5-min Rain = 0
KCL2 201644Z 19011KT 31/20 A2997 RMK A01 T03140201  RH  051%=      5-min Rain = 0
KCL2 201645Z 20014KT 32/20 A2997 RMK A01 T03150200  RH  051%=      5-min Rain = 0
KCL2 201646Z 20015KT 31/20 A2997 RMK A01 T03140195  RH  049%=      5-min Rain = 0
KCL2 201647Z 19012KT 31/20 A2997 RMK A01 T03110197  RH  051%=      5-min Rain = 0
KCL2 201648Z 19013KT 31/20 A2997 RMK A01 T03110198  RH  051%=      5-min Rain = 0
KCL2 201649Z 19015KT 31/20 A2997 RMK A01 T03110196  RH  050%=      5-min Rain = 0
KCL2 201650Z 20017KT 31/20 A2997 RMK A01 T03120195  RH  050%=      5-min Rain = 0
KCL2 201651Z 19013KT 31/20 A2997 RMK A01 T03130195  RH  050%=      5-min Rain = 0
KCL2 201652Z 18013KT 32/20 A2997 RMK A01 T03150198  RH  050%=      5-min Rain = 0
KCL2 201653Z 18012G17KT 32/20 A2997 RMK A01 T03160196  RH  049%=      5-min Rain = 0
KCL2 201654Z 19013KT 32/20 A2997 RMK A01 T03160196  RH  049%=      5-min Rain = 0
KCL2 201655Z 18010KT 32/20 A2997 RMK A01 T03170197  RH  049%=      5-min Rain = 0
KCL2 201656Z 18011KT 32/20 A2997 RMK A01 T03170196  RH  049%=      5-min Rain = 0
KCL2 201657Z 20013KT 32/20 A2997 RMK A01 T03180198  RH  049%=      5-min Rain = 0
KCL2 201658Z 20015KT 32/20 A2997 RMK A01 T03180196  RH  048%=      5-min Rain = 0
KCL2 201659Z 21013KT 32/20 A2997 RMK A01 T03160197  RH  050%=      5-min Rain = 0
KCL2 201700Z 20012G17KT 32/20 A2997 RMK A01 T03150198  RH  050%=      5-min Rain = 0
KCL2 201701Z 19010KT 32/20 A2997 RMK A01 T03160201  RH  050%=      5-min Rain = 0
KCL2 201702Z 17012KT 32/20 A2997 RMK A01 T03200200  RH  049%=      5-min Rain = 0
KCL2 201703Z 19012KT 32/20 A2997 RMK A01 T03200200  RH  049%=      5-min Rain = 0
KCL2 201704Z 20012KT 32/20 A2997 RMK A01 T03200199  RH  049%=      5-min Rain = 0
KCL2 201705Z 20013KT 32/20 A2997 RMK A01 T03190198  RH  049%=      5-min Rain = 0
KCL2 201706Z 17013G19KT 32/20 A2997 RMK A01 T03190199  RH  049%=      5-min Rain = 0
KCL2 201707Z 18014KT 32/20 A2997 RMK A01 T03190197  RH  048%=      5-min Rain = 0
KCL2 201708Z 19016KT 32/20 A2997 RMK A01 T03200196  RH  048%=      5-min Rain = 0
KCL2 201709Z 18016KT 32/20 A2997 RMK A01 T03190195  RH  048%=      5-min Rain = 0
KCL2 201710Z 18013KT 32/19 A2997 RMK A01 T03170193  RH  048%=      5-min Rain = 0
KCL2 201711Z 19011KT 32/20 A2997 RMK A01 T03160195  RH  049%=      5-min Rain = 0
KCL2 201712Z 20013KT 32/19 A2997 RMK A01 T03180190  RH  047%=      5-min Rain = 0
KCL2 201713Z 21014KT 32/19 A2997 RMK A01 T03200185  RH  045%=      5-min Rain = 0
KCL2 201714Z 20015KT 32/19 A2997 RMK A01 T03210189  RH  046%=      5-min Rain = 0
KCL2 201715Z 18011KT 32/19 A2997 RMK A01 T03220194  RH  047%=      5-min Rain = 0
KCL2 201716Z 19012KT 32/20 A2997 RMK A01 T03220196  RH  047%=      5-min Rain = 0
KCL2 201717Z 18011G17KT 32/20 A2997 RMK A01 T03230200  RH  048%=      5-min Rain = 0
KCL2 201718Z 17013KT 33/20 A2997 RMK A01 T03250197  RH  047%=      5-min Rain = 0
KCL2 201719Z 17011KT 32/19 A2997 RMK A01 T03230193  RH  046%=      5-min Rain = 0
KCL2 201720Z 19012KT 32/20 A2997 RMK A01 T03200196  RH  048%=      5-min Rain = 0
KCL2 201721Z 17013KT 32/20 A2997 RMK A01 T03210197  RH  048%=      5-min Rain = 0
KCL2 201722Z 17014KT 32/19 A2997 RMK A01 T03220193  RH  047%=      5-min Rain = 0
KCL2 201723Z 17014KT 32/19 A2997 RMK A01 T03210193  RH  047%=      5-min Rain = 0
KCL2 201724Z 17013KT 32/20 A2997 RMK A01 T03210196  RH  048%=      5-min Rain = 0
KCL2 201725Z 19012KT 32/20 A2997 RMK A01 T03220195  RH  047%=      5-min Rain = 0
KCL2 201726Z 18013KT 32/20 A2997 RMK A01 T03230196  RH  047%=      5-min Rain = 0
KCL2 201727Z 18015G20KT 32/19 A2997 RMK A01 T03230194  RH  047%=      5-min Rain = 0
KCL2 201728Z 19016KT 32/19 A2997 RMK A01 T03220191  RH  046%=      5-min Rain = 0
KCL2 201729Z 20013KT 32/19 A2997 RMK A01 T03200192  RH  047%=      5-min Rain = 0
KCL2 201730Z 18012G17KT 32/19 A2997 RMK A01 T03210193  RH  047%=      5-min Rain = 0
KCL2 201731Z 18016KT 32/19 A2997 RMK A01 T03230191  RH  046%=      5-min Rain = 0
KCL2 201732Z 19016KT 32/19 A2997 RMK A01 T03230191  RH  046%=      5-min Rain = 0
KCL2 201733Z 20014KT 32/19 A2997 RMK A01 T03240190  RH  045%=      5-min Rain = 0
KCL2 201734Z 20013KT 32/19 A2997 RMK A01 T03240190  RH  045%=      5-min Rain = 0
KCL2 201735Z 18013KT 32/19 A2997 RMK A01 T03240193  RH  046%=      5-min Rain = 0
KCL2 201736Z 17012KT 32/19 A2997 RMK A01 T03240193  RH  046%=      5-min Rain = 0
KCL2 201737Z 17013KT 33/20 A2997 RMK A01 T03250196  RH  047%=      5-min Rain = 0
KCL2 201738Z 17015KT 33/19 A2997 RMK A01 T03260194  RH  046%=      5-min Rain = 0
KCL2 201739Z 18016KT 33/19 A2997 RMK A01 T03260193  RH  046%=      5-min Rain = 0
KCL2 201740Z 18015KT 33/19 A2997 RMK A01 T03250191  RH  045%=      5-min Rain = 0
KCL2 201741Z 17013KT 32/19 A2997 RMK A01 T03230191  RH  045%=      5-min Rain = 0
KCL2 201742Z 16014G20KT 32/19 A2997 RMK A01 T03240192  RH  046%=      5-min Rain = 0
KCL2 201743Z 17016G22KT 33/19 A2997 RMK A01 T03260189  RH  045%=      5-min Rain = 0
KCL2 201744Z 18015G21KT 33/19 A2997 RMK A01 T03260189  RH  044%=      5-min Rain = 0
KCL2 201745Z 19014KT 33/19 A2997 RMK A01 T03260190  RH  045%=      5-min Rain = 0
KCL2 201746Z 19013KT 33/19 A2997 RMK A01 T03260189  RH  044%=      5-min Rain = 0
KCL2 201747Z 17014KT 33/19 A2997 RMK A01 T03260190  RH  044%=      5-min Rain = 0
KCL2 201748Z 17014G19KT 33/19 A2997 RMK A01 T03280187  RH  043%=      5-min Rain = 0
KCL2 201749Z 18013KT 33/19 A2997 RMK A01 T03280188  RH  044%=      5-min Rain = 0
KCL2 201750Z 18012KT 33/19 A2997 RMK A01 T03270192  RH  045%=      5-min Rain = 0
KCL2 201751Z 17012KT 33/19 A2997 RMK A01 T03280191  RH  045%=      5-min Rain = 0
KCL2 201752Z 17011G16KT 33/19 A2997 RMK A01 T03280189  RH  044%=      5-min Rain = 0
KCL2 201753Z 18012KT 33/19 A2997 RMK A01 T03280191  RH  044%=      5-min Rain = 0
KCL2 201754Z 20012KT 33/19 A2997 RMK A01 T03290191  RH  044%=      5-min Rain = 0
KCL2 201755Z 17019G24KT 33/19 A2996 RMK A01 T03300188  RH  043%=      5-min Rain = 0
KCL2 201756Z 17014KT 33/19 A2997 RMK A01 T03290187  RH  043%=      5-min Rain = 0
KCL2 201757Z 17014KT 33/19 A2997 RMK A01 T03290188  RH  043%=      5-min Rain = 0
KCL2 201758Z 18013G18KT 33/19 A2997 RMK A01 T03270191  RH  044%=      5-min Rain = 0
KCL2 201759Z 18014G19KT 33/19 A2997 RMK A01 T03280193  RH  045%=      5-min Rain = 0
KCL2 201800Z 18011KT 33/19 A2997 RMK A01 T03300191  RH  044%=      5-min Rain = 0
KCL2 201801Z 20012KT 33/19 A2996 RMK A01 T03320193  RH  044%=      5-min Rain = 0
KCL2 201802Z 19013KT 33/19 A2997 RMK A01 T03320194  RH  044%=      5-min Rain = 0
KCL2 201803Z 19013KT 33/19 A2997 RMK A01 T03340194  RH  044%=      5-min Rain = 0
KCL2 201804Z 20013KT 33/19 A2997 RMK A01 T03340191  RH  043%=      5-min Rain = 0
KCL2 201805Z 19011KT 33/19 A2997 RMK A01 T03320189  RH  043%=      5-min Rain = 0
KCL2 201806Z 19014KT 33/19 A2996 RMK A01 T03310190  RH  043%=      5-min Rain = 0
KCL2 201807Z 20013KT 33/19 A2996 RMK A01 T03310191  RH  044%=      5-min Rain = 0
KCL2 201808Z 20014G19KT 33/19 A2996 RMK A01 T03320192  RH  044%=      5-min Rain = 0
KCL2 201809Z 18014KT 33/19 A2996 RMK A01 T03330191  RH  043%=      5-min Rain = 0
KCL2 201810Z 18016G21KT 33/19 A2996 RMK A01 T03330191  RH  043%=      5-min Rain = 0
KCL2 201811Z 17017G22KT 33/19 A2996 RMK A01 T03310188  RH  043%=      5-min Rain = 0
KCL2 201812Z 19012KT 33/19 A2996 RMK A01 T03300190  RH  044%=      5-min Rain = 0
KCL2 201813Z 18010KT 33/19 A2996 RMK A01 T03330192  RH  044%=      5-min Rain = 0
KCL2 201814Z 18011KT 33/19 A2996 RMK A01 T03340191  RH  043%=      5-min Rain = 0
KCL2 201815Z 17013KT 33/19 A2996 RMK A01 T03340190  RH  043%=      5-min Rain = 0
KCL2 201816Z 18015KT 34/19 A2996 RMK A01 T03350188  RH  042%=      5-min Rain = 0
KCL2 201817Z 18016KT 33/19 A2996 RMK A01 T03330185  RH  042%=      5-min Rain = 0
KCL2 201818Z 18013KT 33/19 A2996 RMK A01 T03300188  RH  043%=      5-min Rain = 0
KCL2 201819Z 17015KT 33/19 A2996 RMK A01 T03320190  RH  043%=      5-min Rain = 0
KCL2 201820Z 16012KT 33/19 A2996 RMK A01 T03310189  RH  043%=      5-min Rain = 0
KCL2 201821Z 17011KT 33/20 A2996 RMK A01 T03310195  RH  045%=      5-min Rain = 0
KCL2 201822Z 18016KT 33/19 A2996 RMK A01 T03340192  RH  043%=      5-min Rain = 0
KCL2 201823Z 18014KT 33/19 A2996 RMK A01 T03330191  RH  043%=      5-min Rain = 0
KCL2 201824Z 19015KT 33/19 A2996 RMK A01 T03310190  RH  043%=      5-min Rain = 0
KCL2 201825Z 18012KT 33/19 A2996 RMK A01 T03300192  RH  044%=      5-min Rain = 0
KCL2 201826Z 18014KT 33/19 A2996 RMK A01 T03300191  RH  044%=      5-min Rain = 0
KCL2 201827Z 17013KT 33/19 A2996 RMK A01 T03300191  RH  044%=      5-min Rain = 0
KCL2 201828Z 18014KT 33/20 A2996 RMK A01 T03310195  RH  045%=      5-min Rain = 0
KCL2 201829Z 18012G18KT 33/19 A2996 RMK A01 T03330192  RH  043%=      5-min Rain = 0
KCL2 201830Z 17015KT 33/19 A2996 RMK A01 T03330192  RH  043%=      5-min Rain = 0
KCL2 201831Z 17014KT 33/19 A2996 RMK A01 T03330191  RH  043%=      5-min Rain = 0
KCL2 201832Z 17013KT 33/19 A2995 RMK A01 T03330191  RH  043%=      5-min Rain = 0
KCL2 201833Z 17011KT 33/19 A2995 RMK A01 T03330193  RH  044%=      5-min Rain = 0
KCL2 201834Z 19014KT 34/19 A2995 RMK A01 T03360194  RH  043%=      5-min Rain = 0
KCL2 201835Z 18014KT 34/19 A2996 RMK A01 T03360189  RH  042%=      5-min Rain = 0
KCL2 201836Z 18012KT 33/19 A2996 RMK A01 T03340192  RH  043%=      5-min Rain = 0
KCL2 201837Z 17011KT 33/19 A2995 RMK A01 T03340194  RH  044%=      5-min Rain = 0
KCL2 201838Z 17013G20KT 34/20 A2995 RMK A01 T03360198  RH  044%=      5-min Rain = 0
KCL2 201839Z 17015G20KT 34/19 A2995 RMK A01 T03380193  RH  043%=      5-min Rain = 0
KCL2 201840Z 18016KT 34/19 A2995 RMK A01 T03360194  RH  043%=      5-min Rain = 0
KCL2 201841Z 18017KT 34/19 A2995 RMK A01 T03370193  RH  043%=      5-min Rain = 0
KCL2 201842Z 18017KT 34/19 A2995 RMK A01 T03360188  RH  042%=      5-min Rain = 0
KCL2 201843Z 18018KT 33/19 A2995 RMK A01 T03330189  RH  043%=      5-min Rain = 0
KCL2 201844Z 19015KT 33/19 A2995 RMK A01 T03320190  RH  043%=      5-min Rain = 0
KCL2 201845Z 19015KT 33/19 A2995 RMK A01 T03330192  RH  043%=      5-min Rain = 0
KCL2 201846Z 18014KT 33/19 A2995 RMK A01 T03340190  RH  043%=      5-min Rain = 0
KCL2 201847Z 18013KT 34/20 A2995 RMK A01 T03350195  RH  044%=      5-min Rain = 0
KCL2 201848Z 18012KT 34/19 A2995 RMK A01 T03370194  RH  043%=      5-min Rain = 0
KCL2 201849Z 18010KT 34/19 A2996 RMK A01 T03370194  RH  043%=      5-min Rain = 0
KCL2 201850Z 18012KT 34/20 A2995 RMK A01 T03370195  RH  043%=      5-min Rain = 0
KCL2 201851Z 18013KT 34/19 A2995 RMK A01 T03350194  RH  043%=      5-min Rain = 0
KCL2 201852Z 17014KT 33/19 A2996 RMK A01 T03340192  RH  043%=      5-min Rain = 0
KCL2 201853Z 17014KT 33/19 A2995 RMK A01 T03340193  RH  044%=      5-min Rain = 0
KCL2 201854Z 16015KT 34/19 A2995 RMK A01 T03360193  RH  043%=      5-min Rain = 0
KCL2 201855Z 17010KT 34/19 A2995 RMK A01 T03350193  RH  043%=      5-min Rain = 0
KCL2 201856Z 16015KT 34/20 A2995 RMK A01 T03360195  RH  044%=      5-min Rain = 0
KCL2 201857Z 17015KT 34/19 A2995 RMK A01 T03380194  RH  043%=      5-min Rain = 0
KCL2 201858Z 17013G18KT 34/20 A2995 RMK A01 T03380197  RH  044%=      5-min Rain = 0
KCL2 201859Z 17014KT 34/19 A2995 RMK A01 T03380194  RH  043%=      5-min Rain = 0
KCL2 201900Z 19010KT 34/20 A2995 RMK A01 T03370196  RH  043%=      5-min Rain = 0
KCL2 201901Z 19011KT 34/20 A2995 RMK A01 T03380196  RH  043%=      5-min Rain = 0
KCL2 201902Z 19015KT 34/20 A2995 RMK A01 T03420195  RH  042%=      5-min Rain = 0
KCL2 201903Z 17011KT 34/20 A2995 RMK A01 T03410196  RH  042%=      5-min Rain = 0
KCL2 201904Z 17011KT 34/20 A2995 RMK A01 T03410197  RH  043%=      5-min Rain = 0
KCL2 201905Z 17011KT 34/20 A2995 RMK A01 T03400196  RH  043%=      5-min Rain = 0
KCL2 201906Z 18014KT 34/20 A2995 RMK A01 T03410195  RH  042%=      5-min Rain = 0
KCL2 201907Z 19016KT 34/20 A2995 RMK A01 T03400195  RH  043%=      5-min Rain = 0
KCL2 201908Z 17012G18KT 34/20 A2995 RMK A01 T03400197  RH  043%=      5-min Rain = 0
KCL2 201909Z 18013KT 34/20 A2995 RMK A01 T03430197  RH  042%=      5-min Rain = 0
KCL2 201910Z 18014KT 34/20 A2995 RMK A01 T03430196  RH  042%=      5-min Rain = 0
KCL2 201911Z 18018KT 34/20 A2995 RMK A01 T03410196  RH  043%=      5-min Rain = 0
KCL2 201912Z 17013KT 34/19 A2995 RMK A01 T03400193  RH  042%=      5-min Rain = 0
KCL2 201913Z 18010KT 34/20 A2995 RMK A01 T03380196  RH  043%=      5-min Rain = 0
KCL2 201914Z 18016KT 34/20 A2995 RMK A01 T03390196  RH  043%=      5-min Rain = 0
KCL2 201915Z 18013KT 34/20 A2995 RMK A01 T03400195  RH  043%=      5-min Rain = 0
KCL2 201916Z 18014KT 34/20 A2995 RMK A01 T03400195  RH  043%=      5-min Rain = 0
KCL2 201917Z 19013KT 34/20 A2995 RMK A01 T03400196  RH  043%=      5-min Rain = 0
KCL2 201918Z 18014G19KT 34/19 A2995 RMK A01 T03400194  RH  042%=      5-min Rain = 0
KCL2 201919Z 18015G20KT 34/19 A2994 RMK A01 T03380192  RH  042%=      5-min Rain = 0
KCL2 201920Z 18014KT 34/19 A2994 RMK A01 T03370194  RH  043%=      5-min Rain = 0
KCL2 201921Z 17013G19KT 34/19 A2994 RMK A01 T03370192  RH  043%=      5-min Rain = 0
KCL2 201922Z 17015G21KT 34/19 A2994 RMK A01 T03380191  RH  042%=      5-min Rain = 0
KCL2 201923Z 17015KT 34/19 A2994 RMK A01 T03380190  RH  042%=      5-min Rain = 0
KCL2 201924Z 18013G18KT 34/19 A2994 RMK A01 T03370193  RH  043%=      5-min Rain = 0
KCL2 201925Z 18013KT 34/19 A2994 RMK A01 T03390194  RH  043%=      5-min Rain = 0
KCL2 201926Z 18016G21KT 34/19 A2994 RMK A01 T03390192  RH  042%=      5-min Rain = 0
KCL2 201927Z 17013KT 34/19 A2994 RMK A01 T03400194  RH  042%=      5-min Rain = 0
KCL2 201928Z 17011KT 34/19 A2994 RMK A01 T03410192  RH  042%=      5-min Rain = 0
KCL2 201929Z 18013G20KT 34/19 A2994 RMK A01 T03410194  RH  042%=      5-min Rain = 0
KCL2 201930Z 19016KT 34/19 A2994 RMK A01 T03420191  RH  041%=      5-min Rain = 0
KCL2 201931Z 19015KT 34/19 A2994 RMK A01 T03400191  RH  042%=      5-min Rain = 0
KCL2 201932Z 19013G18KT 34/19 A2994 RMK A01 T03390191  RH  042%=      5-min Rain = 0
KCL2 201933Z 17012KT 34/19 A2994 RMK A01 T03380191  RH  042%=      5-min Rain = 0
KCL2 201934Z 16012KT 34/19 A2994 RMK A01 T03370189  RH  042%=      5-min Rain = 0
KCL2 201935Z 17011KT 34/19 A2994 RMK A01 T03380192  RH  042%=      5-min Rain = 0
KCL2 201936Z 18012KT 34/19 A2994 RMK A01 T03410192  RH  042%=      5-min Rain = 0
KCL2 201937Z 17011KT 34/19 A2994 RMK A01 T03410193  RH  042%=      5-min Rain = 0
KCL2 201938Z 18016KT 34/19 A2994 RMK A01 T03420192  RH  041%=      5-min Rain = 0
KCL2 201939Z 17013KT 34/19 A2994 RMK A01 T03430192  RH  041%=      5-min Rain = 0
KCL2 201940Z 17013G20KT 34/19 A2994 RMK A01 T03420194  RH  042%=      5-min Rain = 0
KCL2 201941Z 17018KT 34/19 A2993 RMK A01 T03430188  RH  040%=      5-min Rain = 0
KCL2 201942Z 17015KT 34/19 A2994 RMK A01 T03400188  RH  041%=      5-min Rain = 0
KCL2 201943Z 17011KT 34/19 A2994 RMK A01 T03400189  RH  041%=      5-min Rain = 0
KCL2 201944Z 18015KT 34/19 A2993 RMK A01 T03420190  RH  041%=      5-min Rain = 0
KCL2 201945Z 18014KT 34/19 A2993 RMK A01 T03420190  RH  041%=      5-min Rain = 0
KCL2 201946Z 17011KT 34/19 A2993 RMK A01 T03410191  RH  041%=      5-min Rain = 0
KCL2 201947Z 18011G16KT 34/20 A2993 RMK A01 T03440197  RH  042%=      5-min Rain = 0
KCL2 201948Z 18017KT 35/19 A2993 RMK A01 T03480190  RH  040%=      5-min Rain = 0
KCL2 201949Z 17014G19KT 35/19 A2993 RMK A01 T03450189  RH  040%=      5-min Rain = 0
KCL2 201950Z 17015KT 34/19 A2993 RMK A01 T03440188  RH  040%=      5-min Rain = 0
KCL2 201951Z 17013KT 34/19 A2993 RMK A01 T03420188  RH  040%=      5-min Rain = 0
KCL2 201952Z 17012G17KT 34/19 A2993 RMK A01 T03420190  RH  041%=      5-min Rain = 0
KCL2 201953Z 17015KT 34/19 A2993 RMK A01 T03430188  RH  040%=      5-min Rain = 0
KCL2 201954Z 18012KT 34/19 A2993 RMK A01 T03430187  RH  040%=      5-min Rain = 0
KCL2 201955Z 16013G18KT 34/19 A2993 RMK A01 T03420188  RH  040%=      5-min Rain = 0
KCL2 201956Z 17017KT 34/19 A2993 RMK A01 T03430188  RH  040%=      5-min Rain = 0
KCL2 201957Z 18011G16KT 35/20 A2993 RMK A01 T03460195  RH  041%=      5-min Rain = 0
KCL2 201958Z 19016KT 35/19 A2993 RMK A01 T03490190  RH  039%=      5-min Rain = 0
KCL2 201959Z 18013G18KT 35/19 A2993 RMK A01 T03460186  RH  039%=      5-min Rain = 0
KCL2 202000Z 19014KT 34/19 A2993 RMK A01 T03440188  RH  040%=      5-min Rain = 0
KCL2 202001Z 18012KT 34/19 A2993 RMK A01 T03430187  RH  040%=      5-min Rain = 0
KCL2 202002Z 19012KT 34/19 A2993 RMK A01 T03430187  RH  040%=      5-min Rain = 0
KCL2 202003Z 17009G14KT 34/19 A2993 RMK A01 T03440189  RH  040%=      5-min Rain = 0
KCL2 202004Z 16012KT 35/19 A2992 RMK A01 T03460186  RH  039%=      5-min Rain = 0
KCL2 202005Z 17014G20KT 35/19 A2992 RMK A01 T03460188  RH  039%=      5-min Rain = 0
KCL2 202006Z 17017G23KT 35/19 A2992 RMK A01 T03460186  RH  039%=      5-min Rain = 0
KCL2 202007Z 19012KT 35/19 A2992 RMK A01 T03460190  RH  040%=      5-min Rain = 0
KCL2 202008Z 18011KT 35/19 A2992 RMK A01 T03470191  RH  040%=      5-min Rain = 0
KCL2 202009Z 19015KT 35/19 A2992 RMK A01 T03490188  RH  039%=      5-min Rain = 0
KCL2 202010Z 18013KT 35/19 A2992 RMK A01 T03490189  RH  039%=      5-min Rain = 0
KCL2 202011Z 19012KT 35/19 A2992 RMK A01 T03480188  RH  039%=      5-min Rain = 0
KCL2 202012Z 20013KT 35/19 A2992 RMK A01 T03470190  RH  039%=      5-min Rain = 0
KCL2 202013Z 18014KT 35/19 A2992 RMK A01 T03490188  RH  039%=      5-min Rain = 0
KCL2 202014Z 18009KT 35/19 A2992 RMK A01 T03480192  RH  040%=      5-min Rain = 0
KCL2 202015Z 17012KT 35/19 A2992 RMK A01 T03490188  RH  039%=      5-min Rain = 0
KCL2 202016Z 18011KT 35/19 A2992 RMK A01 T03490192  RH  040%=      5-min Rain = 0
KCL2 202017Z 18015KT 35/19 A2992 RMK A01 T03500191  RH  039%=      5-min Rain = 0
KCL2 202018Z 18014KT 35/19 A2992 RMK A01 T03500186  RH  038%=      5-min Rain = 0
KCL2 202019Z 17013KT 35/19 A2992 RMK A01 T03490188  RH  039%=      5-min Rain = 0
KCL2 202020Z 17014KT 35/19 A2992 RMK A01 T03490185  RH  038%=      5-min Rain = 0
KCL2 202021Z 17013KT 35/18 A2992 RMK A01 T03480183  RH  038%=      5-min Rain = 0
KCL2 202022Z 17011KT 35/18 A2992 RMK A01 T03460184  RH  038%=      5-min Rain = 0
KCL2 202023Z 16014KT 35/18 A2991 RMK A01 T03470184  RH  038%=      5-min Rain = 0
KCL2 202024Z 17013KT 35/19 A2992 RMK A01 T03470185  RH  038%=      5-min Rain = 0
KCL2 202025Z 18015KT 35/19 A2992 RMK A01 T03480185  RH  038%=      5-min Rain = 0
KCL2 202026Z 17016KT 35/18 A2992 RMK A01 T03480183  RH  038%=      5-min Rain = 0
KCL2 202027Z 18016KT 35/18 A2992 RMK A01 T03470183  RH  038%=      5-min Rain = 0
KCL2 202028Z 18014KT 35/18 A2992 RMK A01 T03470183  RH  038%=      5-min Rain = 0
KCL2 202029Z 19013KT 35/18 A2992 RMK A01 T03470184  RH  038%=      5-min Rain = 0
KCL2 202030Z 20010KT 35/18 A2992 RMK A01 T03460183  RH  038%=      5-min Rain = 0
KCL2 202031Z 17011KT 35/19 A2992 RMK A01 T03470190  RH  040%=      5-min Rain = 0
KCL2 202032Z 16015KT 35/19 A2992 RMK A01 T03500186  RH  038%=      5-min Rain = 0
KCL2 202033Z 17012KT 35/19 A2992 RMK A01 T03500186  RH  038%=      5-min Rain = 0
KCL2 202034Z 17013KT 35/18 A2992 RMK A01 T03490182  RH  037%=      5-min Rain = 0
KCL2 202035Z 18014KT 35/19 A2992 RMK A01 T03480185  RH  038%=      5-min Rain = 0
KCL2 202036Z 17016KT 35/18 A2992 RMK A01 T03490183  RH  038%=      5-min Rain = 0
KCL2 202037Z 18012KT 35/18 A2992 RMK A01 T03480183  RH  038%=      5-min Rain = 0
KCL2 202038Z 17013KT 35/19 A2991 RMK A01 T03470185  RH  038%=      5-min Rain = 0
KCL2 202039Z 17013KT 35/18 A2991 RMK A01 T03480183  RH  038%=      5-min Rain = 0
KCL2 202040Z 17011KT 35/18 A2992 RMK A01 T03500184  RH  038%=      5-min Rain = 0
KCL2 202041Z 16008KT 35/19 A2991 RMK A01 T03520189  RH  038%=      5-min Rain = 0
KCL2 202042Z 17010KT 36/19 A2991 RMK A01 T03550190  RH  038%=      5-min Rain = 0
KCL2 202043Z 18010KT 36/19 A2991 RMK A01 T03560186  RH  037%=      5-min Rain = 0
KCL2 202044Z 16012G18KT 35/19 A2991 RMK A01 T03540187  RH  037%=      5-min Rain = 0
KCL2 202045Z 17014KT 35/19 A2991 RMK A01 T03520185  RH  037%=      5-min Rain = 0
KCL2 202046Z 17013KT 35/18 A2991 RMK A01 T03500180  RH  037%=      5-min Rain = 0
KCL2 202047Z 16010KT 35/18 A2991 RMK A01 T03470183  RH  038%=      5-min Rain = 0
KCL2 202048Z 18012KT 35/19 A2991 RMK A01 T03490185  RH  038%=      5-min Rain = 0
KCL2 202049Z 18014KT 35/19 A2991 RMK A01 T03500186  RH  038%=      5-min Rain = 0
KCL2 202050Z 17014G22KT 35/19 A2991 RMK A01 T03510187  RH  038%=      5-min Rain = 0
KCL2 202051Z 18016KT 35/19 A2991 RMK A01 T03520187  RH  038%=      5-min Rain = 0
KCL2 202052Z 17013KT 35/19 A2991 RMK A01 T03530185  RH  037%=      5-min Rain = 0
KCL2 202053Z 17013KT 35/18 A2991 RMK A01 T03530184  RH  037%=      5-min Rain = 0
KCL2 202054Z 20011KT 35/18 A2991 RMK A01 T03540184  RH  037%=      5-min Rain = 0
KCL2 202055Z 19010KT 35/18 A2991 RMK A01 T03530183  RH  037%=      5-min Rain = 0
KCL2 202056Z 19012KT 35/18 A2991 RMK A01 T03530184  RH  037%=      5-min Rain = 0
KCL2 202057Z 18010KT 35/19 A2991 RMK A01 T03530187  RH  038%=      5-min Rain = 0
KCL2 202058Z 18013KT 35/19 A2991 RMK A01 T03540186  RH  037%=      5-min Rain = 0
KCL2 202059Z 20011KT 35/18 A2991 RMK A01 T03540181  RH  036%=      5-min Rain = 0
KCL2 202100Z 20013KT 35/18 A2991 RMK A01 T03510184  RH  037%=      5-min Rain = 0
KCL2 202101Z 18011KT 35/19 A2991 RMK A01 T03520187  RH  038%=      5-min Rain = 0
KCL2 202102Z 19011KT 35/19 A2991 RMK A01 T03540186  RH  037%=      5-min Rain = 0
KCL2 202103Z 18014KT 35/18 A2991 RMK A01 T03530184  RH  037%=      5-min Rain = 0
KCL2 202104Z 18014KT 35/19 A2991 RMK A01 T03520185  RH  037%=      5-min Rain = 0
KCL2 202105Z 18010KT 35/19 A2991 RMK A01 T03520187  RH  038%=      5-min Rain = 0
KCL2 202106Z 18010KT 35/19 A2991 RMK A01 T03540187  RH  038%=      5-min Rain = 0
KCL2 202107Z 16010KT 35/19 A2991 RMK A01 T03540185  RH  037%=      5-min Rain = 0
KCL2 202108Z 17011KT 35/19 A2991 RMK A01 T03540186  RH  037%=      5-min Rain = 0
KCL2 202109Z 19013KT 35/19 A2991 RMK A01 T03540188  RH  038%=      5-min Rain = 0
KCL2 202110Z 18011KT 36/19 A2991 RMK A01 T03560187  RH  037%=      5-min Rain = 0
KCL2 202111Z 19012KT 36/19 A2991 RMK A01 T03570186  RH  037%=      5-min Rain = 0
KCL2 202112Z 19015KT 36/18 A2991 RMK A01 T03560183  RH  036%=      5-min Rain = 0
KCL2 202113Z 18013KT 35/18 A2991 RMK A01 T03530182  RH  036%=      5-min Rain = 0
KCL2 202114Z 17012G17KT 35/19 A2991 RMK A01 T03540185  RH  037%=      5-min Rain = 0
KCL2 202115Z 17012KT 36/18 A2991 RMK A01 T03560184  RH  036%=      5-min Rain = 0
KCL2 202116Z 16013KT 36/18 A2991 RMK A01 T03560180  RH  035%=      5-min Rain = 0
KCL2 202117Z 17013KT 35/18 A299 RMK A01 T03540178  RH  035%=      5-min Rain = 0
KCL2 202118Z 17011KT 35/18 A299 RMK A01 T03520179  RH  036%=      5-min Rain = 0
KCL2 202119Z 16014G19KT 35/18 A299 RMK A01 T03520180  RH  036%=      5-min Rain = 0
KCL2 202120Z 17013G19KT 35/18 A299 RMK A01 T03530179  RH  036%=      5-min Rain = 0
KCL2 202121Z 18010KT 35/18 A299 RMK A01 T03530181  RH  036%=      5-min Rain = 0
KCL2 202122Z 18010KT 36/19 A299 RMK A01 T03550185  RH  037%=      5-min Rain = 0
KCL2 202123Z 20013G18KT 36/18 A299 RMK A01 T03570183  RH  036%=      5-min Rain = 0
KCL2 202124Z 20014KT 36/18 A299 RMK A01 T03560179  RH  035%=      5-min Rain = 0
KCL2 202125Z 20014KT 36/18 A299 RMK A01 T03560178  RH  035%=      5-min Rain = 0
KCL2 202126Z 17010KT 36/18 A299 RMK A01 T03550183  RH  036%=      5-min Rain = 0
KCL2 202127Z 18009KT 36/19 A299 RMK A01 T03570188  RH  037%=      5-min Rain = 0
KCL2 202128Z 18011KT 36/19 A299 RMK A01 T03600185  RH  036%=      5-min Rain = 0
KCL2 202129Z 15010KT 36/18 A299 RMK A01 T03600183  RH  035%=      5-min Rain = 0
KCL2 202130Z 15012G17KT 36/18 A299 RMK A01 T03590181  RH  035%=      5-min Rain = 0
KCL2 202131Z 16008KT 36/18 A299 RMK A01 T03580183  RH  036%=      5-min Rain = 0
KCL2 202132Z 16010KT 36/18 A299 RMK A01 T03580183  RH  036%=      5-min Rain = 0
KCL2 202133Z 16015KT 36/18 A299 RMK A01 T03580181  RH  035%=      5-min Rain = 0
KCL2 202134Z 16013KT 36/18 A299 RMK A01 T03570179  RH  035%=      5-min Rain = 0
KCL2 202135Z 17010KT 36/19 A299 RMK A01 T03570186  RH  037%=      5-min Rain = 0
KCL2 202136Z 16010KT 36/18 A299 RMK A01 T03590183  RH  036%=      5-min Rain = 0
KCL2 202137Z 16011KT 36/18 A299 RMK A01 T03590182  RH  035%=      5-min Rain = 0
KCL2 202138Z 15009KT 36/18 A299 RMK A01 T03600184  RH  036%=      5-min Rain = 0
KCL2 202139Z 16011KT 36/18 A299 RMK A01 T03590181  RH  035%=      5-min Rain = 0
KCL2 202140Z 16012KT 36/18 A299 RMK A01 T03570183  RH  036%=      5-min Rain = 0
KCL2 202141Z 18011KT 36/19 A299 RMK A01 T03560186  RH  037%=      5-min Rain = 0
KCL2 202142Z 18011KT 36/19 A299 RMK A01 T03580186  RH  036%=      5-min Rain = 0
KCL2 202143Z 19009KT 36/18 A299 RMK A01 T03590184  RH  036%=      5-min Rain = 0
KCL2 202144Z 20011G16KT 36/18 A299 RMK A01 T03590184  RH  036%=      5-min Rain = 0
KCL2 202145Z 20009G15KT 36/18 A2989 RMK A01 T03600183  RH  035%=      5-min Rain = 0
KCL2 202146Z 19011KT 36/18 A2989 RMK A01 T03610180  RH  035%=      5-min Rain = 0
KCL2 202147Z 17013KT 36/18 A2989 RMK A01 T03600179  RH  035%=      5-min Rain = 0
KCL2 202148Z 19013KT 36/18 A2989 RMK A01 T03590181  RH  035%=      5-min Rain = 0
KCL2 202149Z 18014KT 36/18 A2989 RMK A01 T03590175  RH  034%=      5-min Rain = 0
KCL2 202150Z 18011KT 36/17 A2989 RMK A01 T03560172  RH  034%=      5-min Rain = 0
KCL2 202151Z 18010KT 35/17 A2989 RMK A01 T03540172  RH  034%=      5-min Rain = 0
KCL2 202152Z 18012KT 35/18 A2989 RMK A01 T03530176  RH  035%=      5-min Rain = 0
KCL2 202153Z 17010KT 36/18 A2989 RMK A01 T03550178  RH  035%=      5-min Rain = 0
KCL2 202154Z 17012KT 36/18 A2989 RMK A01 T03560180  RH  035%=      5-min Rain = 0
KCL2 202155Z 20013KT 36/18 A2989 RMK A01 T03570181  RH  035%=      5-min Rain = 0
KCL2 202156Z 18009KT 36/18 A2989 RMK A01 T03580181  RH  035%=      5-min Rain = 0
KCL2 202157Z 18011KT 36/18 A2989 RMK A01 T03580181  RH  035%=      5-min Rain = 0
KCL2 202158Z 19010KT 36/18 A2989 RMK A01 T03590180  RH  035%=      5-min Rain = 0
KCL2 202159Z 17009KT 36/18 A2989 RMK A01 T03580183  RH  036%=      5-min Rain = 0
KCL2 202200Z 16013KT 36/18 A2989 RMK A01 T03590182  RH  035%=      5-min Rain = 0
KCL2 202201Z 16014KT 36/18 A2989 RMK A01 T03590179  RH  034%=      5-min Rain = 0
KCL2 202202Z 16014KT 36/18 A2989 RMK A01 T03580177  RH  034%=      5-min Rain = 0
KCL2 202203Z 18009KT 36/18 A2989 RMK A01 T03560177  RH  035%=      5-min Rain = 0
KCL2 202204Z 17012KT 36/18 A2989 RMK A01 T03550179  RH  035%=      5-min Rain = 0
KCL2 202205Z 18010KT 36/18 A2989 RMK A01 T03560179  RH  035%=      5-min Rain = 0
KCL2 202206Z 16011KT 36/18 A2989 RMK A01 T03550176  RH  035%=      5-min Rain = 0
KCL2 202207Z 17014KT 35/18 A2989 RMK A01 T03540178  RH  035%=      5-min Rain = 0
KCL2 202208Z 17014G19KT 36/18 A2989 RMK A01 T03550177  RH  035%=      5-min Rain = 0
KCL2 202209Z 18014KT 36/18 A2989 RMK A01 T03560175  RH  034%=      5-min Rain = 0
KCL2 202210Z 18012KT 36/17 A2989 RMK A01 T03560173  RH  034%=      5-min Rain = 0
KCL2 202211Z 18009KT 36/17 A2989 RMK A01 T03560173  RH  034%=      5-min Rain = 0
KCL2 202212Z 18012KT 36/18 A2989 RMK A01 T03570176  RH  034%=      5-min Rain = 0
KCL2 202213Z 17011KT 36/18 A2989 RMK A01 T03560178  RH  035%=      5-min Rain = 0
KCL2 202214Z 16011KT 36/18 A2989 RMK A01 T03560179  RH  035%=      5-min Rain = 0
KCL2 202215Z 16015KT 36/18 A2989 RMK A01 T03570176  RH  034%=      5-min Rain = 0
KCL2 202216Z 16011KT 36/18 A2989 RMK A01 T03550176  RH  035%=      5-min Rain = 0
KCL2 202217Z 17010KT 36/18 A2989 RMK A01 T03550179  RH  035%=      5-min Rain = 0
KCL2 202218Z 16010KT 36/18 A2989 RMK A01 T03550179  RH  035%=      5-min Rain = 0
KCL2 202219Z 17012KT 36/18 A2989 RMK A01 T03560181  RH  036%=      5-min Rain = 0
KCL2 202220Z 17015KT 36/18 A2989 RMK A01 T03570179  RH  035%=      5-min Rain = 0
KCL2 202221Z 17014KT 36/18 A2989 RMK A01 T03570178  RH  035%=      5-min Rain = 0
KCL2 202222Z 18011KT 36/18 A2989 RMK A01 T03570177  RH  035%=      5-min Rain = 0
KCL2 202223Z 18011KT 36/18 A2989 RMK A01 T03570180  RH  035%=      5-min Rain = 0
KCL2 202224Z 18013KT 36/18 A2989 RMK A01 T03560177  RH  035%=      5-min Rain = 0
KCL2 202225Z 17014G19KT 36/18 A2989 RMK A01 T03550175  RH  035%=      5-min Rain = 0
KCL2 202226Z 16012KT 36/17 A2989 RMK A01 T03550172  RH  034%=      5-min Rain = 0
KCL2 202227Z 15010KT 36/18 A2989 RMK A01 T03550175  RH  035%=      5-min Rain = 0
KCL2 202228Z 16008KT 36/18 A2989 RMK A01 T03580178  RH  035%=      5-min Rain = 0
KCL2 202229Z 18009G14KT 36/18 A2989 RMK A01 T03600180  RH  035%=      5-min Rain = 0
KCL2 202230Z 16010G16KT 36/18 A2989 RMK A01 T03600182  RH  035%=      5-min Rain = 0
KCL2 202231Z 16012KT 36/18 A2989 RMK A01 T03600180  RH  035%=      5-min Rain = 0
KCL2 202232Z 16013KT 36/18 A2989 RMK A01 T03590182  RH  035%=      5-min Rain = 0
KCL2 202233Z 17013KT 36/18 A2989 RMK A01 T03590177  RH  034%=      5-min Rain = 0
KCL2 202234Z 17011KT 36/18 A2989 RMK A01 T03580179  RH  035%=      5-min Rain = 0
KCL2 202235Z 17011KT 36/18 A2989 RMK A01 T03570179  RH  035%=      5-min Rain = 0
KCL2 202236Z 18012G17KT 36/18 A2989 RMK A01 T03570181  RH  036%=      5-min Rain = 0
KCL2 202237Z 16012KT 36/18 A2989 RMK A01 T03570180  RH  035%=      5-min Rain = 0
KCL2 202238Z 16013KT 36/18 A2989 RMK A01 T03570177  RH  035%=      5-min Rain = 0
KCL2 202239Z 17011KT 36/18 A2989 RMK A01 T03570178  RH  035%=      5-min Rain = 0
KCL2 202240Z 17011KT 36/18 A2989 RMK A01 T03560178  RH  035%=      5-min Rain = 0
KCL2 202241Z 19012KT 36/17 A2989 RMK A01 T03560174  RH  034%=      5-min Rain = 0
KCL2 202242Z 18012KT 36/17 A2989 RMK A01 T03560172  RH  034%=      5-min Rain = 0
KCL2 202243Z 19011KT 36/17 A2989 RMK A01 T03560173  RH  034%=      5-min Rain = 0
KCL2 202244Z 19011KT 36/18 A2989 RMK A01 T03560176  RH  035%=      5-min Rain = 0
KCL2 202245Z 17009KT 36/18 A2989 RMK A01 T03550179  RH  035%=      5-min Rain = 0
KCL2 202246Z 18011KT 36/18 A2989 RMK A01 T03570176  RH  034%=      5-min Rain = 0
KCL2 202247Z 17010KT 36/18 A2989 RMK A01 T03570178  RH  035%=      5-min Rain = 0
KCL2 202248Z 16011KT 36/18 A2989 RMK A01 T03570177  RH  035%=      5-min Rain = 0
KCL2 202249Z 17012KT 36/18 A2989 RMK A01 T03570177  RH  035%=      5-min Rain = 0
KCL2 202250Z 19013G18KT 36/18 A2989 RMK A01 T03560179  RH  035%=      5-min Rain = 0
KCL2 202251Z 18012KT 36/18 A2989 RMK A01 T03560178  RH  035%=      5-min Rain = 0
KCL2 202252Z 17011KT 36/18 A2989 RMK A01 T03560178  RH  035%=      5-min Rain = 0
KCL2 202253Z 18012KT 36/18 A2989 RMK A01 T03550176  RH  035%=      5-min Rain = 0
KCL2 202254Z 17010KT 36/18 A2989 RMK A01 T03550177  RH  035%=      5-min Rain = 0
KCL2 202255Z 17012KT 36/18 A2989 RMK A01 T03550176  RH  035%=      5-min Rain = 0
KCL2 202256Z 17014KT 36/18 A2989 RMK A01 T03550175  RH  035%=      5-min Rain = 0
KCL2 202257Z 17014KT 36/17 A2989 RMK A01 T03550172  RH  034%=      5-min Rain = 0
KCL2 202258Z 18015KT 36/17 A2989 RMK A01 T03550172  RH  034%=      5-min Rain = 0
KCL2 202259Z 17012KT 35/17 A2989 RMK A01 T03530173  RH  034%=      5-min Rain = 0
KCL2 202300Z 18008KT 35/18 A2989 RMK A01 T03530179  RH  036%=      5-min Rain = 0
KCL2 202301Z 18012KT 36/18 A2988 RMK A01 T03550176  RH  035%=      5-min Rain = 0
KCL2 202302Z 17013KT 36/18 A2988 RMK A01 T03560178  RH  035%=      5-min Rain = 0
KCL2 202303Z 16013G18KT 36/17 A2988 RMK A01 T03560172  RH  034%=      5-min Rain = 0
KCL2 202304Z 16014KT 36/17 A2988 RMK A01 T03550171  RH  034%=      5-min Rain = 0
KCL2 202305Z 16012KT 35/17 A2988 RMK A01 T03540172  RH  034%=      5-min Rain = 0
KCL2 202306Z 16012KT 35/17 A2988 RMK A01 T03540172  RH  034%=      5-min Rain = 0
KCL2 202307Z 16013G19KT 36/17 A2988 RMK A01 T03550173  RH  034%=      5-min Rain = 0
KCL2 202308Z 16013KT 36/17 A2988 RMK A01 T03550171  RH  034%=      5-min Rain = 0
KCL2 202309Z 17012KT 36/17 A2988 RMK A01 T03550172  RH  034%=      5-min Rain = 0
KCL2 202310Z 16010KT 35/17 A2988 RMK A01 T03540174  RH  034%=      5-min Rain = 0
KCL2 202311Z 17013KT 35/17 A2988 RMK A01 T03540174  RH  034%=      5-min Rain = 0
KCL2 202312Z 17014KT 35/17 A2988 RMK A01 T03540173  RH  034%=      5-min Rain = 0
KCL2 202313Z 17013KT 35/17 A2988 RMK A01 T03540173  RH  034%=      5-min Rain = 0
KCL2 202314Z 18010KT 35/18 A2988 RMK A01 T03540180  RH  036%=      5-min Rain = 0
KCL2 202315Z 19013KT 36/18 A2988 RMK A01 T03550175  RH  035%=      5-min Rain = 0
KCL2 202316Z 19014KT 35/18 A2988 RMK A01 T03540175  RH  035%=      5-min Rain = 0
KCL2 202317Z 18012KT 35/18 A2988 RMK A01 T03530175  RH  035%=      5-min Rain = 0
KCL2 202318Z 19012KT 35/18 A2988 RMK A01 T03520175  RH  035%=      5-min Rain = 0
KCL2 202319Z 17011KT 35/18 A2988 RMK A01 T03520176  RH  035%=      5-min Rain = 0
KCL2 202320Z 17009KT 35/18 A2988 RMK A01 T03530179  RH  036%=      5-min Rain = 0
KCL2 202321Z 19012KT 36/18 A2988 RMK A01 T03550176  RH  035%=      5-min Rain = 0
KCL2 202322Z 17011KT 36/18 A2988 RMK A01 T03550175  RH  035%=      5-min Rain = 0
KCL2 202323Z 18015G22KT 35/17 A2988 RMK A01 T03540174  RH  034%=      5-min Rain = 0
KCL2 202324Z 17017KT 35/17 A2988 RMK A01 T03530169  RH  033%=      5-min Rain = 0
KCL2 202325Z 17017KT 35/17 A2988 RMK A01 T03530168  RH  033%=      5-min Rain = 0
KCL2 202326Z 17016G22KT 35/17 A2988 RMK A01 T03520169  RH  034%=      5-min Rain = 0
KCL2 202327Z 17015KT 35/17 A2988 RMK A01 T03520168  RH  034%=      5-min Rain = 0
KCL2 202328Z 17013KT 35/17 A2988 RMK A01 T03510170  RH  034%=      5-min Rain = 0
KCL2 202329Z 17012G17KT 35/17 A2988 RMK A01 T03510172  RH  035%=      5-min Rain = 0
KCL2 202330Z 17011G16KT 35/18 A2988 RMK A01 T03520175  RH  035%=      5-min Rain = 0
KCL2 202331Z 18011G16KT 35/17 A2988 RMK A01 T03530173  RH  034%=      5-min Rain = 0
KCL2 202332Z 18012KT 35/17 A2988 RMK A01 T03530173  RH  035%=      5-min Rain = 0
KCL2 202333Z 18010KT 35/17 A2988 RMK A01 T03520173  RH  035%=      5-min Rain = 0
KCL2 202334Z 18012KT 35/17 A2988 RMK A01 T03520172  RH  034%=      5-min Rain = 0
KCL2 202335Z 17011KT 35/17 A2988 RMK A01 T03520174  RH  035%=      5-min Rain = 0
KCL2 202336Z 18009KT 35/18 A2988 RMK A01 T03520176  RH  035%=      5-min Rain = 0
KCL2 202337Z 19011KT 35/18 A2987 RMK A01 T03520178  RH  036%=      5-min Rain = 0
KCL2 202338Z 17010KT 35/18 A2987 RMK A01 T03520177  RH  036%=      5-min Rain = 0
KCL2 202339Z 16011KT 35/18 A2987 RMK A01 T03520176  RH  035%=      5-min Rain = 0
KCL2 202340Z 16010KT 35/17 A2987 RMK A01 T03520174  RH  035%=      5-min Rain = 0
KCL2 202341Z 16008KT 35/18 A2987 RMK A01 T03520175  RH  035%=      5-min Rain = 0
KCL2 202342Z 17011KT 35/17 A2987 RMK A01 T03520174  RH  035%=      5-min Rain = 0
KCL2 202343Z 16011KT 35/17 A2987 RMK A01 T03520173  RH  035%=      5-min Rain = 0
KCL2 202344Z 16009KT 35/17 A2987 RMK A01 T03520174  RH  035%=      5-min Rain = 0
KCL2 202345Z 17012KT 35/17 A2987 RMK A01 T03520173  RH  035%=      5-min Rain = 0
KCL2 202346Z 19014KT 35/17 A2987 RMK A01 T03510171  RH  034%=      5-min Rain = 0
KCL2 202347Z 18012KT 35/17 A2987 RMK A01 T03510169  RH  034%=      5-min Rain = 0
KCL2 202348Z 18011KT 35/17 A2987 RMK A01 T03500171  RH  035%=      5-min Rain = 0
KCL2 202349Z 17012KT 35/17 A2987 RMK A01 T03500171  RH  035%=      5-min Rain = 0
KCL2 202350Z 17010KT 35/17 A2987 RMK A01 T03500171  RH  035%=      5-min Rain = 0
KCL2 202351Z 16007KT 35/18 A2987 RMK A01 T03500175  RH  035%=      5-min Rain = 0
KCL2 202352Z 17009KT 35/18 A2987 RMK A01 T03500175  RH  036%=      5-min Rain = 0
KCL2 202353Z 17010KT 35/17 A2987 RMK A01 T03500174  RH  035%=      5-min Rain = 0
KCL2 202354Z 17010KT 35/17 A2987 RMK A01 T03500173  RH  035%=      5-min Rain = 0
KCL2 202355Z 16010KT 35/18 A2987 RMK A01 T03490175  RH  036%=      5-min Rain = 0
KCL2 202356Z 16011KT 35/17 A2987 RMK A01 T03500174  RH  035%=      5-min Rain = 0
KCL2 202357Z 16012KT 35/17 A2987 RMK A01 T03500173  RH  035%=      5-min Rain = 0
KCL2 202358Z 16010KT 35/17 A2987 RMK A01 T03500174  RH  035%=      5-min Rain = 0
KCL2 202359Z 17010KT 35/17 A2987 RMK A01 T03490172  RH  035%=      5-min Rain = 0
KCL2 210000Z 16011G16KT 35/17 A2987 RMK A01 T03490172  RH  035%=      5-min Rain = 0
KCL2 210001Z 16010KT 35/17 A2987 RMK A01 T03490171  RH  035%=      5-min Rain = 0
KCL2 210002Z 16009KT 35/17 A2987 RMK A01 T03490169  RH  034%=      5-min Rain = 0
KCL2 210003Z 16011KT 35/17 A2987 RMK A01 T03480169  RH  035%=      5-min Rain = 0
KCL2 210004Z 16011KT 35/17 A2987 RMK A01 T03480168  RH  034%=      5-min Rain = 0
KCL2 210005Z 17012KT 35/17 A2987 RMK A01 T03480167  RH  034%=      5-min Rain = 0
KCL2 210006Z 16010KT 35/17 A2987 RMK A01 T03470166  RH  034%=      5-min Rain = 0
KCL2 210007Z 17012KT 35/17 A2987 RMK A01 T03470166  RH  034%=      5-min Rain = 0
KCL2 210008Z 17013KT 35/17 A2987 RMK A01 T03470166  RH  034%=      5-min Rain = 0
KCL2 210009Z 17012KT 35/17 A2987 RMK A01 T03470166  RH  034%=      5-min Rain = 0
KCL2 210010Z 17011KT 35/17 A2987 RMK A01 T03470167  RH  034%=      5-min Rain = 0
KCL2 210011Z 17012G17KT 35/17 A2987 RMK A01 T03470165  RH  034%=      5-min Rain = 0
KCL2 210012Z 17010G15KT 35/17 A2987 RMK A01 T03470168  RH  035%=      5-min Rain = 0
KCL2 210013Z 18011KT 35/17 A2987 RMK A01 T03470167  RH  034%=      5-min Rain = 0
KCL2 210014Z 16010KT 35/17 A2987 RMK A01 T03460168  RH  035%=      5-min Rain = 0
KCL2 210015Z 17008KT 35/17 A2987 RMK A01 T03460170  RH  035%=      5-min Rain = 0
KCL2 210016Z 17010KT 35/17 A2987 RMK A01 T03460170  RH  035%=      5-min Rain = 0
KCL2 210017Z 17009KT 35/17 A2987 RMK A01 T03460169  RH  035%=      5-min Rain = 0
KCL2 210018Z 16008KT 35/17 A2987 RMK A01 T03450172  RH  036%=      5-min Rain = 0
KCL2 210019Z 16009KT 35/17 A2987 RMK A01 T03450170  RH  035%=      5-min Rain = 0
KCL2 210020Z 16013KT 35/17 A2987 RMK A01 T03450168  RH  035%=      5-min Rain = 0
KCL2 210021Z 16010KT 35/17 A2987 RMK A01 T03450168  RH  035%=      5-min Rain = 0
KCL2 210022Z 16010KT 34/17 A2987 RMK A01 T03440168  RH  035%=      5-min Rain = 0
KCL2 210023Z 17011KT 34/17 A2987 RMK A01 T03440168  RH  035%=      5-min Rain = 0
KCL2 210024Z 17013KT 34/17 A2987 RMK A01 T03440167  RH  035%=      5-min Rain = 0
KCL2 210025Z 17012KT 34/17 A2987 RMK A01 T03440165  RH  035%=      5-min Rain = 0
KCL2 210026Z 16010KT 34/17 A2987 RMK A01 T03440165  RH  035%=      5-min Rain = 0
KCL2 210027Z 17012KT 34/17 A2987 RMK A01 T03440165  RH  034%=      5-min Rain = 0
KCL2 210028Z 17011KT 34/17 A2987 RMK A01 T03440167  RH  035%=      5-min Rain = 0
KCL2 210029Z 17010KT 34/17 A2987 RMK A01 T03430167  RH  035%=      5-min Rain = 0
KCL2 210030Z 16009KT 34/17 A2987 RMK A01 T03430168  RH  035%=      5-min Rain = 0
KCL2 210031Z 16012KT 34/17 A2987 RMK A01 T03420167  RH  035%=      5-min Rain = 0
KCL2 210032Z 16011KT 34/17 A2987 RMK A01 T03420166  RH  035%=      5-min Rain = 0
KCL2 210033Z 16008KT 34/17 A2987 RMK A01 T03420168  RH  035%=      5-min Rain = 0
KCL2 210034Z 16011KT 34/17 A2988 RMK A01 T03420168  RH  036%=      5-min Rain = 0
KCL2 210035Z 16010KT 34/17 A2987 RMK A01 T03420168  RH  035%=      5-min Rain = 0
KCL2 210036Z 16010KT 34/17 A2987 RMK A01 T03420168  RH  036%=      5-min Rain = 0
KCL2 210037Z 16009KT 34/17 A2987 RMK A01 T03420169  RH  036%=      5-min Rain = 0
KCL2 210038Z 16008KT 34/17 A2988 RMK A01 T03410171  RH  036%=      5-min Rain = 0
KCL2 210039Z 16009KT 34/17 A2987 RMK A01 T03400171  RH  036%=      5-min Rain = 0
KCL2 210040Z 16008KT 34/17 A2987 RMK A01 T03400172  RH  037%=      5-min Rain = 0
KCL2 210041Z 16008KT 34/17 A2988 RMK A01 T03400172  RH  037%=      5-min Rain = 0
KCL2 210042Z 15008KT 34/17 A2988 RMK A01 T03390172  RH  037%=      5-min Rain = 0
KCL2 210043Z 16007KT 34/17 A2988 RMK A01 T03380172  RH  037%=      5-min Rain = 0
KCL2 210044Z 16008KT 34/17 A2988 RMK A01 T03380172  RH  037%=      5-min Rain = 0
KCL2 210045Z 15007KT 34/17 A2988 RMK A01 T03370172  RH  037%=      5-min Rain = 0
KCL2 210046Z 15007KT 34/17 A2988 RMK A01 T03370173  RH  038%=      5-min Rain = 0
KCL2 210047Z 15009KT 34/17 A2988 RMK A01 T03370172  RH  038%=      5-min Rain = 0
KCL2 210048Z 15009KT 34/17 A2988 RMK A01 T03370171  RH  037%=      5-min Rain = 0
KCL2 210049Z 15008KT 34/17 A2988 RMK A01 T03370171  RH  037%=      5-min Rain = 0
KCL2 210050Z 15010KT 34/17 A2988 RMK A01 T03360170  RH  037%=      5-min Rain = 0
KCL2 210051Z 16009KT 34/17 A2988 RMK A01 T03360170  RH  037%=      5-min Rain = 0
KCL2 210052Z 16009KT 34/17 A2988 RMK A01 T03360171  RH  038%=      5-min Rain = 0
KCL2 210053Z 16008KT 34/17 A2988 RMK A01 T03350171  RH  038%=      5-min Rain = 0
KCL2 210054Z 15008KT 34/17 A2988 RMK A01 T03350171  RH  038%=      5-min Rain = 0
KCL2 210055Z 15007KT 33/17 A2988 RMK A01 T03340171  RH  038%=      5-min Rain = 0
KCL2 210056Z 15006KT 33/17 A2988 RMK A01 T03340171  RH  038%=      5-min Rain = 0
KCL2 210057Z 15007KT 33/17 A2988 RMK A01 T03330172  RH  038%=      5-min Rain = 0
KCL2 210058Z 15008KT 33/17 A2988 RMK A01 T03330172  RH  038%=      5-min Rain = 0
KCL2 210059Z 15008KT 33/17 A2988 RMK A01 T03320172  RH  038%=      5-min Rain = 0
KCL2 210100Z 15009KT 33/17 A2988 RMK A01 T03320172  RH  039%=      5-min Rain = 0
KCL2 210101Z 16009KT 33/17 A2988 RMK A01 T03320171  RH  038%=      5-min Rain = 0
KCL2 210102Z 16008KT 33/17 A2988 RMK A01 T03310171  RH  039%=      5-min Rain = 0
KCL2 210103Z 15008KT 33/17 A2988 RMK A01 T03310171  RH  039%=      5-min Rain = 0
KCL2 210104Z 16010KT 33/17 A2988 RMK A01 T03300169  RH  038%=      5-min Rain = 0
KCL2 210105Z 16010KT 33/17 A2988 RMK A01 T03300169  RH  038%=      5-min Rain = 0
KCL2 210106Z 16008KT 33/17 A2988 RMK A01 T03310170  RH  038%=      5-min Rain = 0
KCL2 210107Z 16008KT 33/17 A2988 RMK A01 T03300170  RH  038%=      5-min Rain = 0
KCL2 210108Z 16008KT 33/17 A2988 RMK A01 T03300171  RH  039%=      5-min Rain = 0
KCL2 210109Z 16007KT 33/17 A2988 RMK A01 T03290170  RH  039%=      5-min Rain = 0
KCL2 210110Z 15007KT 33/17 A2988 RMK A01 T03280170  RH  039%=      5-min Rain = 0
KCL2 210111Z 16008KT 33/17 A2988 RMK A01 T03280171  RH  039%=      5-min Rain = 0
KCL2 210112Z 16008KT 33/17 A2988 RMK A01 T03270169  RH  039%=      5-min Rain = 0
KCL2 210113Z 16009KT 33/17 A2988 RMK A01 T03270169  RH  039%=      5-min Rain = 0
KCL2 210114Z 16009KT 33/17 A2988 RMK A01 T03260168  RH  039%=      5-min Rain = 0
KCL2 210115Z 16010KT 33/17 A2988 RMK A01 T03260168  RH  039%=      5-min Rain = 0
KCL2 210116Z 16010KT 33/17 A2988 RMK A01 T03260166  RH  038%=      5-min Rain = 0
KCL2 210117Z 16010KT 33/17 A2988 RMK A01 T03260165  RH  038%=      5-min Rain = 0
KCL2 210118Z 16009KT 33/17 A2988 RMK A01 T03260165  RH  038%=      5-min Rain = 0
KCL2 210119Z 16008KT 33/17 A2988 RMK A01 T03260166  RH  038%=      5-min Rain = 0
KCL2 210120Z 16009G14KT 33/17 A2988 RMK A01 T03260166  RH  039%=      5-min Rain = 0
KCL2 210121Z 16007KT 33/17 A2988 RMK A01 T03250165  RH  038%=      5-min Rain = 0
KCL2 210122Z 15008KT 32/17 A2988 RMK A01 T03240166  RH  039%=      5-min Rain = 0
KCL2 210123Z 15007KT 32/17 A2988 RMK A01 T03230165  RH  039%=      5-min Rain = 0
KCL2 210124Z 15007KT 32/17 A2988 RMK A01 T03230165  RH  039%=      5-min Rain = 0
KCL2 210125Z 15007KT 32/17 A2988 RMK A01 T03220166  RH  039%=      5-min Rain = 0
KCL2 210126Z 15006KT 32/17 A2988 RMK A01 T03210166  RH  039%=      5-min Rain = 0
KCL2 210127Z 15007KT 32/17 A2988 RMK A01 T03200166  RH  040%=      5-min Rain = 0
KCL2 210128Z 15007KT 32/17 A2988 RMK A01 T03190166  RH  040%=      5-min Rain = 0
KCL2 210129Z 15007KT 32/17 A2988 RMK A01 T03190166  RH  040%=      5-min Rain = 0
KCL2 210130Z 15007KT 32/17 A2988 RMK A01 T03180166  RH  040%=      5-min Rain = 0
KCL2 210131Z 15007KT 32/17 A2988 RMK A01 T03180166  RH  040%=      5-min Rain = 0
KCL2 210132Z 15007KT 32/17 A2988 RMK A01 T03180166  RH  040%=      5-min Rain = 0
KCL2 210133Z 15007KT 32/17 A2988 RMK A01 T03170167  RH  041%=      5-min Rain = 0
KCL2 210134Z 15007KT 32/17 A2988 RMK A01 T03160167  RH  041%=      5-min Rain = 0
KCL2 210135Z 15007KT 32/17 A2988 RMK A01 T03150167  RH  041%=      5-min Rain = 0
KCL2 210136Z 15007KT 31/17 A2988 RMK A01 T03140167  RH  041%=      5-min Rain = 0
KCL2 210137Z 15007KT 31/17 A2988 RMK A01 T03140168  RH  042%=      5-min Rain = 0
KCL2 210138Z 14006KT 31/17 A2988 RMK A01 T03130168  RH  042%=      5-min Rain = 0
KCL2 210139Z 14006KT 31/17 A2988 RMK A01 T03120168  RH  042%=      5-min Rain = 0
KCL2 210140Z 14007KT 31/17 A2988 RMK A01 T03110169  RH  042%=      5-min Rain = 0
KCL2 210141Z 14007KT 31/17 A2988 RMK A01 T03100168  RH  043%=      5-min Rain = 0
KCL2 210142Z 14007KT 31/17 A2988 RMK A01 T03090168  RH  043%=      5-min Rain = 0
KCL2 210143Z 14007KT 31/17 A2988 RMK A01 T03090168  RH  043%=      5-min Rain = 0
KCL2 210144Z 14006KT 31/17 A2988 RMK A01 T03090168  RH  043%=      5-min Rain = 0
KCL2 210145Z 14007KT 31/17 A2988 RMK A01 T03080168  RH  043%=      5-min Rain = 0
KCL2 210146Z 14007KT 31/17 A2988 RMK A01 T03070167  RH  043%=      5-min Rain = 0
KCL2 210147Z 14008KT 31/17 A2988 RMK A01 T03060168  RH  043%=      5-min Rain = 0
KCL2 210148Z 14008KT 31/17 A2988 RMK A01 T03060167  RH  043%=      5-min Rain = 0
KCL2 210149Z 14007KT 31/17 A2988 RMK A01 T03060167  RH  043%=      5-min Rain = 0
KCL2 210150Z 14007KT 31/17 A2988 RMK A01 T03060168  RH  043%=      5-min Rain = 0
KCL2 210151Z 14007KT 31/17 A2988 RMK A01 T03050168  RH  044%=      5-min Rain = 0
KCL2 210152Z 14007KT 31/17 A2988 RMK A01 T03050168  RH  044%=      5-min Rain = 0
KCL2 210153Z 14007KT 31/17 A2988 RMK A01 T03050168  RH  044%=      5-min Rain = 0
KCL2 210154Z 14007KT 31/17 A2988 RMK A01 T03050168  RH  044%=      5-min Rain = 0
KCL2 210155Z 14007KT 30/17 A2988 RMK A01 T03040168  RH  044%=      5-min Rain = 0
KCL2 210156Z 14006KT 30/17 A2988 RMK A01 T03030168  RH  044%=      5-min Rain = 0
KCL2 210157Z 14007KT 30/17 A2988 RMK A01 T03020168  RH  045%=      5-min Rain = 0
KCL2 210158Z 14006KT 30/17 A2988 RMK A01 T03010169  RH  045%=      5-min Rain = 0
KCL2 210159Z 14006KT 30/17 A2988 RMK A01 T03000168  RH  045%=      5-min Rain = 0
KCL2 210200Z 14007KT 30/17 A2988 RMK A01 T03000169  RH  045%=      5-min Rain = 0
KCL2 210201Z 14006KT 30/17 A2988 RMK A01 T03000169  RH  045%=      5-min Rain = 0
KCL2 210202Z 14007KT 30/17 A2988 RMK A01 T03000169  RH  045%=      5-min Rain = 0
KCL2 210203Z 14008KT 30/17 A2988 RMK A01 T02990169  RH  045%=      5-min Rain = 0
KCL2 210204Z 14007KT 30/17 A2988 RMK A01 T02990169  RH  046%=      5-min Rain = 0
KCL2 210205Z 14008KT 30/17 A2988 RMK A01 T02990169  RH  046%=      5-min Rain = 0
KCL2 210206Z 14007KT 30/17 A2988 RMK A01 T02990169  RH  046%=      5-min Rain = 0
KCL2 210207Z 14007KT 30/17 A2988 RMK A01 T02990169  RH  046%=      5-min Rain = 0
KCL2 210208Z 14008KT 30/17 A2988 RMK A01 T02980169  RH  046%=      5-min Rain = 0
KCL2 210209Z 14007KT 30/17 A2988 RMK A01 T02980169  RH  046%=      5-min Rain = 0
KCL2 210210Z 14007KT 30/17 A2988 RMK A01 T02980169  RH  046%=      5-min Rain = 0
KCL2 210211Z 14006KT 30/17 A2988 RMK A01 T02980169  RH  046%=      5-min Rain = 0
KCL2 210212Z 14007KT 30/17 A2989 RMK A01 T02980169  RH  046%=      5-min Rain = 0
KCL2 210213Z 14006KT 30/17 A2989 RMK A01 T02970169  RH  046%=      5-min Rain = 0
KCL2 210214Z 14006KT 30/17 A2989 RMK A01 T02970169  RH  046%=      5-min Rain = 0
KCL2 210215Z 14007KT 30/17 A2989 RMK A01 T02960169  RH  046%=      5-min Rain = 0
KCL2 210216Z 14006KT 30/17 A2989 RMK A01 T02960169  RH  046%=      5-min Rain = 0
KCL2 210217Z 14006KT 30/17 A2989 RMK A01 T02960169  RH  046%=      5-min Rain = 0
KCL2 210218Z 14006KT 30/17 A2989 RMK A01 T02950168  RH  046%=      5-min Rain = 0
KCL2 210219Z 14007KT 30/17 A2989 RMK A01 T02950168  RH  046%=      5-min Rain = 0
KCL2 210220Z 14007KT 30/17 A2989 RMK A01 T02950168  RH  046%=      5-min Rain = 0
KCL2 210221Z 14006KT 30/17 A2989 RMK A01 T02950168  RH  046%=      5-min Rain = 0
KCL2 210222Z 14006KT 29/17 A2989 RMK A01 T02940168  RH  046%=      5-min Rain = 0
KCL2 210223Z 14007KT 29/17 A2989 RMK A01 T02940168  RH  047%=      5-min Rain = 0
KCL2 210224Z 14007KT 29/17 A2989 RMK A01 T02940167  RH  046%=      5-min Rain = 0
KCL2 210225Z 14007KT 29/17 A2989 RMK A01 T02940167  RH  046%=      5-min Rain = 0
KCL2 210226Z 14007KT 29/17 A2989 RMK A01 T02940167  RH  046%=      5-min Rain = 0
KCL2 210227Z 14006KT 29/17 A2989 RMK A01 T02940167  RH  046%=      5-min Rain = 0
KCL2 210228Z 14008KT 29/17 A2989 RMK A01 T02940167  RH  046%=      5-min Rain = 0
KCL2 210229Z 14007KT 29/17 A2989 RMK A01 T02940167  RH  047%=      5-min Rain = 0
KCL2 210230Z 14007KT 29/17 A2989 RMK A01 T02930167  RH  047%=      5-min Rain = 0
KCL2 210231Z 14007KT 29/17 A2989 RMK A01 T02930168  RH  047%=      5-min Rain = 0
KCL2 210232Z 14007KT 29/17 A2989 RMK A01 T02920167  RH  047%=      5-min Rain = 0
KCL2 210233Z 14006KT 29/17 A2989 RMK A01 T02920167  RH  047%=      5-min Rain = 0
KCL2 210234Z 14007KT 29/17 A2989 RMK A01 T02910167  RH  047%=      5-min Rain = 0
KCL2 210235Z 14007KT 29/17 A2989 RMK A01 T02910167  RH  047%=      5-min Rain = 0
KCL2 210236Z 14008KT 29/17 A2989 RMK A01 T02920167  RH  047%=      5-min Rain = 0
KCL2 210237Z 14007KT 29/17 A2989 RMK A01 T02910167  RH  047%=      5-min Rain = 0
KCL2 210238Z 13007KT 29/17 A2989 RMK A01 T02910167  RH  047%=      5-min Rain = 0
KCL2 210239Z 14007KT 29/17 A299 RMK A01 T02910167  RH  047%=      5-min Rain = 0
KCL2 210240Z 14007KT 29/17 A299 RMK A01 T02900167  RH  047%=      5-min Rain = 0
KCL2 210241Z 14007KT 29/17 A299 RMK A01 T02890167  RH  048%=      5-min Rain = 0
KCL2 210242Z 14007KT 29/17 A299 RMK A01 T02890167  RH  048%=      5-min Rain = 0
KCL2 210243Z 14007KT 29/17 A299 RMK A01 T02890167  RH  048%=      5-min Rain = 0
KCL2 210244Z 14008KT 29/17 A299 RMK A01 T02890166  RH  047%=      5-min Rain = 0
KCL2 210245Z 14008KT 29/17 A299 RMK A01 T02900166  RH  047%=      5-min Rain = 0
KCL2 210246Z 14007KT 29/17 A299 RMK A01 T02900167  RH  047%=      5-min Rain = 0
KCL2 210247Z 14006KT 29/17 A299 RMK A01 T02890167  RH  048%=      5-min Rain = 0
KCL2 210248Z 14008KT 29/17 A299 RMK A01 T02890167  RH  048%=      5-min Rain = 0
KCL2 210249Z 14008KT 29/17 A299 RMK A01 T02880166  RH  048%=      5-min Rain = 0
KCL2 210250Z 14008KT 29/17 A299 RMK A01 T02880166  RH  048%=      5-min Rain = 0
KCL2 210251Z 14007KT 29/17 A299 RMK A01 T02890167  RH  048%=      5-min Rain = 0
KCL2 210252Z 14009KT 29/17 A299 RMK A01 T02890167  RH  048%=      5-min Rain = 0
KCL2 210253Z 14009KT 29/17 A299 RMK A01 T02890166  RH  048%=      5-min Rain = 0
KCL2 210254Z 14007KT 29/17 A299 RMK A01 T02890167  RH  047%=      5-min Rain = 0
KCL2 210255Z 14011KT 29/17 A299 RMK A01 T02900167  RH  047%=      5-min Rain = 0
KCL2 210256Z 15010KT 29/17 A299 RMK A01 T02900166  RH  047%=      5-min Rain = 0
KCL2 210257Z 15009KT 29/17 A299 RMK A01 T02920167  RH  047%=      5-min Rain = 0
KCL2 210258Z 14008KT 29/17 A299 RMK A01 T02920167  RH  047%=      5-min Rain = 0
KCL2 210259Z 15010KT 29/17 A299 RMK A01 T02910167  RH  047%=      5-min Rain = 0
KCL2 210300Z 14009KT 29/17 A299 RMK A01 T02910167  RH  047%=      5-min Rain = 0
KCL2 210301Z 14009KT 29/17 A299 RMK A01 T02910167  RH  047%=      5-min Rain = 0
KCL2 210302Z 14009KT 29/17 A299 RMK A01 T02910167  RH  047%=      5-min Rain = 0
KCL2 210303Z 14010KT 29/17 A299 RMK A01 T02910167  RH  047%=      5-min Rain = 0
KCL2 210304Z 15009KT 29/17 A299 RMK A01 T02910167  RH  047%=      5-min Rain = 0
KCL2 210305Z 14010KT 29/17 A299 RMK A01 T02920168  RH  047%=      5-min Rain = 0
KCL2 210306Z 15009KT 29/17 A299 RMK A01 T02910167  RH  047%=      5-min Rain = 0
KCL2 210307Z 15009KT 29/17 A299 RMK A01 T02910168  RH  047%=      5-min Rain = 0
KCL2 210308Z 15010KT 29/17 A299 RMK A01 T02900168  RH  047%=      5-min Rain = 0
KCL2 210309Z 15010KT 29/17 A299 RMK A01 T02900168  RH  048%=      5-min Rain = 0
KCL2 210310Z 15009KT 29/17 A2991 RMK A01 T02900168  RH  048%=      5-min Rain = 0
KCL2 210311Z 15009KT 29/17 A2991 RMK A01 T02900168  RH  048%=      5-min Rain = 0
KCL2 210312Z 15009KT 29/17 A299 RMK A01 T02900168  RH  048%=      5-min Rain = 0
KCL2 210313Z 15008KT 29/17 A2991 RMK A01 T02900168  RH  048%=      5-min Rain = 0
KCL2 210314Z 15009KT 29/17 A2991 RMK A01 T02890168  RH  048%=      5-min Rain = 0
KCL2 210315Z 15009KT 29/17 A2991 RMK A01 T02890168  RH  048%=      5-min Rain = 0
KCL2 210316Z 15009KT 29/17 A2991 RMK A01 T02880168  RH  048%=      5-min Rain = 0
KCL2 210317Z 15009KT 29/17 A2991 RMK A01 T02880168  RH  048%=      5-min Rain = 0
KCL2 210318Z 15009KT 29/17 A2991 RMK A01 T02880168  RH  048%=      5-min Rain = 0
KCL2 210319Z 16009KT 29/17 A2991 RMK A01 T02880169  RH  049%=      5-min Rain = 0
KCL2 210320Z 15010KT 29/17 A2991 RMK A01 T02880169  RH  049%=      5-min Rain = 0
KCL2 210321Z 15008KT 29/17 A2991 RMK A01 T02880168  RH  049%=      5-min Rain = 0
KCL2 210322Z 15008KT 29/17 A2991 RMK A01 T02880169  RH  049%=      5-min Rain = 0
KCL2 210323Z 16009KT 29/17 A2991 RMK A01 T02870169  RH  049%=      5-min Rain = 0
KCL2 210324Z 15011KT 29/17 A2991 RMK A01 T02870169  RH  049%=      5-min Rain = 0
KCL2 210325Z 15009KT 29/17 A2991 RMK A01 T02880169  RH  049%=      5-min Rain = 0
KCL2 210326Z 16009KT 29/17 A2991 RMK A01 T02880169  RH  049%=      5-min Rain = 0
KCL2 210327Z 16011KT 29/17 A2991 RMK A01 T02890169  RH  049%=      5-min Rain = 0
KCL2 210328Z 15010KT 29/17 A2991 RMK A01 T02890170  RH  048%=      5-min Rain = 0
KCL2 210329Z 16010KT 29/17 A2992 RMK A01 T02890170  RH  048%=      5-min Rain = 0
KCL2 210330Z 16010KT 29/17 A2992 RMK A01 T02900170  RH  048%=      5-min Rain = 0
KCL2 210331Z 16012KT 29/17 A2992 RMK A01 T02890170  RH  048%=      5-min Rain = 0
KCL2 210332Z 16009KT 29/17 A2992 RMK A01 T02900170  RH  049%=      5-min Rain = 0
KCL2 210333Z 16010KT 29/17 A2992 RMK A01 T02890170  RH  049%=      5-min Rain = 0
KCL2 210334Z 16012KT 29/17 A2992 RMK A01 T02890170  RH  049%=      5-min Rain = 0
KCL2 210335Z 15011KT 29/17 A2992 RMK A01 T02890170  RH  049%=      5-min Rain = 0
KCL2 210336Z 16011KT 29/17 A2992 RMK A01 T02890170  RH  048%=      5-min Rain = 0
KCL2 210337Z 16012KT 29/17 A2992 RMK A01 T02890170  RH  048%=      5-min Rain = 0
KCL2 210338Z 16008KT 29/17 A2992 RMK A01 T02890170  RH  048%=      5-min Rain = 0
KCL2 210339Z 16011KT 29/17 A2992 RMK A01 T02880170  RH  049%=      5-min Rain = 0
KCL2 210340Z 16010KT 29/17 A2992 RMK A01 T02880170  RH  049%=      5-min Rain = 0
KCL2 210341Z 16009KT 29/17 A2992 RMK A01 T02880170  RH  049%=      5-min Rain = 0
KCL2 210342Z 16010KT 29/17 A2992 RMK A01 T02870169  RH  049%=      5-min Rain = 0
KCL2 210343Z 16010KT 29/17 A2992 RMK A01 T02870169  RH  049%=      5-min Rain = 0
KCL2 210344Z 15011KT 29/17 A2992 RMK A01 T02870169  RH  049%=      5-min Rain = 0
KCL2 210345Z 16011KT 29/17 A2992 RMK A01 T02870169  RH  049%=      5-min Rain = 0
KCL2 210346Z 16009KT 29/17 A2992 RMK A01 T02870169  RH  049%=      5-min Rain = 0
KCL2 210347Z 15008KT 29/17 A2992 RMK A01 T02860169  RH  049%=      5-min Rain = 0
KCL2 210348Z 16009KT 29/17 A2992 RMK A01 T02860170  RH  049%=      5-min Rain = 0
KCL2 210349Z 15009KT 29/17 A2992 RMK A01 T02850169  RH  050%=      5-min Rain = 0
KCL2 210350Z 15010KT 29/17 A2992 RMK A01 T02850169  RH  050%=      5-min Rain = 0
KCL2 210351Z 16010KT 29/17 A2992 RMK A01 T02850169  RH  049%=      5-min Rain = 0
KCL2 210352Z 16010KT 29/17 A2992 RMK A01 T02850169  RH  049%=      5-min Rain = 0
KCL2 210353Z 16011KT 29/17 A2992 RMK A01 T02850169  RH  049%=      5-min Rain = 0
KCL2 210354Z 15011KT 29/17 A2992 RMK A01 T02850169  RH  049%=      5-min Rain = 0
KCL2 210355Z 16010KT 29/17 A2992 RMK A01 T02860169  RH  049%=      5-min Rain = 0
KCL2 210356Z 16009KT 29/17 A2992 RMK A01 T02860168  RH  049%=      5-min Rain = 0
KCL2 210357Z 16010KT 29/17 A2992 RMK A01 T02860169  RH  049%=      5-min Rain = 0
KCL2 210358Z 16010G16KT 29/17 A2992 RMK A01 T02850169  RH  049%=      5-min Rain = 0
KCL2 210359Z 16012KT 29/17 A2992 RMK A01 T02850168  RH  049%=      5-min Rain = 0
KCL2 210400Z 15011KT 29/17 A2992 RMK A01 T02850168  RH  049%=      5-min Rain = 0
KCL2 210401Z 16012KT 29/17 A2992 RMK A01 T02860169  RH  049%=      5-min Rain = 0
KCL2 210402Z 16010KT 29/17 A2992 RMK A01 T02860168  RH  049%=      5-min Rain = 0
KCL2 210403Z 16012KT 29/17 A2992 RMK A01 T02860169  RH  049%=      5-min Rain = 0
KCL2 210404Z 16010KT 29/17 A2992 RMK A01 T02860169  RH  049%=      5-min Rain = 0
KCL2 210405Z 16011KT 29/17 A2992 RMK A01 T02850168  RH  049%=      5-min Rain = 0
KCL2 210406Z 16012KT 29/17 A2992 RMK A01 T02850168  RH  049%=      5-min Rain = 0
KCL2 210407Z 16010KT 29/17 A2992 RMK A01 T02850168  RH  049%=      5-min Rain = 0
KCL2 210408Z 17009KT 29/17 A2992 RMK A01 T02850169  RH  049%=      5-min Rain = 0
KCL2 210409Z 16009KT 28/17 A2992 RMK A01 T02840168  RH  049%=      5-min Rain = 0
KCL2 210410Z 16010KT 28/17 A2993 RMK A01 T02830168  RH  050%=      5-min Rain = 0
KCL2 210411Z 16010KT 28/17 A2992 RMK A01 T02830168  RH  050%=      5-min Rain = 0
KCL2 210412Z 17010KT 28/17 A2993 RMK A01 T02830168  RH  050%=      5-min Rain = 0
KCL2 210413Z 16010KT 28/17 A2993 RMK A01 T02830168  RH  049%=      5-min Rain = 0
KCL2 210414Z 16009KT 28/17 A2992 RMK A01 T02840168  RH  049%=      5-min Rain = 0
KCL2 210415Z 16011KT 28/17 A2992 RMK A01 T02840168  RH  049%=      5-min Rain = 0
KCL2 210416Z 16011KT 28/17 A2992 RMK A01 T02840168  RH  049%=      5-min Rain = 0
KCL2 210417Z 16009KT 28/17 A2992 RMK A01 T02830168  RH  049%=      5-min Rain = 0
KCL2 210418Z 17009KT 28/17 A2992 RMK A01 T02830168  RH  050%=      5-min Rain = 0
KCL2 210419Z 16010KT 28/17 A2992 RMK A01 T02830168  RH  050%=      5-min Rain = 0
KCL2 210420Z 16009KT 28/17 A2992 RMK A01 T02830168  RH  050%=      5-min Rain = 0
KCL2 210421Z 16008KT 28/17 A2992 RMK A01 T02830168  RH  050%=      5-min Rain = 0
KCL2 210422Z 16008KT 28/17 A2992 RMK A01 T02830168  RH  050%=      5-min Rain = 0
KCL2 210423Z 16009G14KT 28/17 A2993 RMK A01 T02820168  RH  050%=      5-min Rain = 0
KCL2 210424Z 16009KT 28/17 A2992 RMK A01 T02820168  RH  050%=      5-min Rain = 0
KCL2 210425Z 16009KT 28/17 A2993 RMK A01 T02820168  RH  050%=      5-min Rain = 0
KCL2 210426Z 17008KT 28/17 A2992 RMK A01 T02810168  RH  050%=      5-min Rain = 0
KCL2 210427Z 16009KT 28/17 A2993 RMK A01 T02820168  RH  050%=      5-min Rain = 0
KCL2 210428Z 16009KT 28/17 A2992 RMK A01 T02810168  RH  050%=      5-min Rain = 0
KCL2 210429Z 16009KT 28/17 A2992 RMK A01 T02810168  RH  050%=      5-min Rain = 0
KCL2 210430Z 16010KT 28/17 A2992 RMK A01 T02800168  RH  050%=      5-min Rain = 0
KCL2 210431Z 16010KT 28/17 A2992 RMK A01 T02800168  RH  050%=      5-min Rain = 0
KCL2 210432Z 16009KT 28/17 A2992 RMK A01 T02800168  RH  050%=      5-min Rain = 0
KCL2 210433Z 16009KT 28/17 A2993 RMK A01 T02800168  RH  050%=      5-min Rain = 0
KCL2 210434Z 17009KT 28/17 A2993 RMK A01 T02800167  RH  050%=      5-min Rain = 0
KCL2 210435Z 17009KT 28/17 A2993 RMK A01 T02800168  RH  051%=      5-min Rain = 0
KCL2 210436Z 17008KT 28/17 A2993 RMK A01 T02790168  RH  051%=      5-min Rain = 0
KCL2 210437Z 16009KT 28/17 A2993 RMK A01 T02790168  RH  051%=      5-min Rain = 0
KCL2 210438Z 16008KT 28/17 A2993 RMK A01 T02790168  RH  051%=      5-min Rain = 0
KCL2 210439Z 16009KT 28/17 A2993 RMK A01 T02780168  RH  051%=      5-min Rain = 0
KCL2 210440Z 16008KT 28/17 A2993 RMK A01 T02780168  RH  051%=      5-min Rain = 0
KCL2 210441Z 17007KT 28/17 A2993 RMK A01 T02780168  RH  051%=      5-min Rain = 0
KCL2 210442Z 16008KT 28/17 A2993 RMK A01 T02770168  RH  051%=      5-min Rain = 0
KCL2 210443Z 16008KT 28/17 A2993 RMK A01 T02770168  RH  051%=      5-min Rain = 0
KCL2 210444Z 17008KT 28/17 A2993 RMK A01 T02770168  RH  051%=      5-min Rain = 0
KCL2 210445Z 17008KT 28/17 A2993 RMK A01 T02760168  RH  052%=      5-min Rain = 0
KCL2 210446Z 17008KT 28/17 A2993 RMK A01 T02760168  RH  052%=      5-min Rain = 0
KCL2 210447Z 17009KT 28/17 A2993 RMK A01 T02760168  RH  052%=      5-min Rain = 0
KCL2 210448Z 16008KT 28/17 A2993 RMK A01 T02750168  RH  052%=      5-min Rain = 0
KCL2 210449Z 17008KT 28/17 A2993 RMK A01 T02750167  RH  052%=      5-min Rain = 0
KCL2 210450Z 17008KT 28/17 A2993 RMK A01 T02750168  RH  052%=      5-min Rain = 0
KCL2 210451Z 17007KT 28/17 A2993 RMK A01 T02750168  RH  052%=      5-min Rain = 0
KCL2 210452Z 17010KT 27/17 A2993 RMK A01 T02740167  RH  052%=      5-min Rain = 0
KCL2 210453Z 17009KT 27/17 A2993 RMK A01 T02740167  RH  052%=      5-min Rain = 0
KCL2 210454Z 16008KT 28/17 A2993 RMK A01 T02750167  RH  052%=      5-min Rain = 0
KCL2 210455Z 17009KT 27/17 A2993 RMK A01 T02740167  RH  052%=      5-min Rain = 0
KCL2 210456Z 16009KT 27/17 A2992 RMK A01 T02730167  RH  052%=      5-min Rain = 0
KCL2 210457Z 16009KT 27/17 A2992 RMK A01 T02730167  RH  052%=      5-min Rain = 0
KCL2 210458Z 16010KT 27/17 A2992 RMK A01 T02730167  RH  052%=      5-min Rain = 0
KCL2 210459Z 16009KT 27/17 A2992 RMK A01 T02740167  RH  052%=      5-min Rain = 0

Page generated in 0.077 seconds.